| time (UTC) | temp F | wind direction | speed MPH | gust MPH | rain 1hr in | rain 24hr in | rain mn in | humidity % | barometer mb |
| 20260505003903 | 85 | 98 | 1.0 | 2.0 | 0.00 | 0.02 | 0.00 | 60 | 1018.9 |
| 20260505003803 | 85 | 99 | 1.0 | 2.0 | 0.00 | 0.02 | 0.00 | 60 | 1019.1 |
| 20260505003704 | 85 | 102 | 1.0 | 2.0 | 0.00 | 0.02 | 0.00 | 60 | 1018.9 |
| 20260505003603 | 85 | 102 | 1.0 | 2.0 | 0.00 | 0.02 | 0.00 | 60 | 1018.9 |
| 20260505003503 | 85 | 99 | 1.0 | 2.0 | 0.00 | 0.02 | 0.00 | 60 | 1018.9 |
| 20260505003403 | 85 | 99 | 1.0 | 2.0 | 0.00 | 0.02 | 0.00 | 60 | 1019.0 |
| 20260505003303 | 85 | 99 | 1.0 | 2.0 | 0.00 | 0.02 | 0.00 | 60 | 1018.9 |
| 20260505003224 | 85 | 99 | 1.0 | 2.0 | 0.00 | 0.02 | 0.00 | 60 | 1018.9 |
| 20260505003125 | 85 | 102 | 1.0 | 2.0 | 0.00 | 0.02 | 0.00 | 60 | 1019.0 |
| 20260505003004 | 85 | 104 | 0.0 | 2.0 | 0.00 | 0.02 | 0.00 | 60 | 1018.9 |
| 20260505002904 | 85 | 94 | 0.0 | 2.0 | 0.00 | 0.02 | 0.00 | 60 | 1018.9 |
| 20260505002803 | 85 | 0 | 0.0 | 0.0 | 0.00 | 0.02 | 0.00 | 60 | 1018.7 |
| 20260505002725 | 85 | 0 | 0.0 | 0.0 | 0.00 | 0.02 | 0.00 | 60 | 1018.9 |
| 20260505002625 | 85 | 0 | 0.0 | 0.0 | 0.00 | 0.02 | 0.00 | 60 | 1018.8 |
| 20260505002505 | 85 | 0 | 0.0 | 0.0 | 0.00 | 0.02 | 0.00 | 60 | 1018.9 |
| 20260505002403 | 85 | 0 | 0.0 | 0.0 | 0.00 | 0.02 | 0.00 | 60 | 1018.9 |
| 20260505002304 | 85 | 0 | 0.0 | 0.0 | 0.00 | 0.02 | 0.00 | 60 | 1018.8 |
| 20260505002203 | 85 | 0 | 0.0 | 0.0 | 0.00 | 0.02 | 0.00 | 60 | 1018.6 |
| 20260505002103 | 85 | 0 | 0.0 | 0.0 | 0.00 | 0.02 | 0.00 | 60 | 1018.7 |
| 20260505002003 | 85 | 0 | 0.0 | 0.0 | 0.00 | 0.02 | 0.00 | 60 | 1018.6 |
| 20260505001903 | 85 | 0 | 0.0 | 0.0 | 0.00 | 0.02 | 0.00 | 60 | 1018.7 |
| 20260505001803 | 85 | 0 | 0.0 | 0.0 | 0.00 | 0.02 | 0.00 | 60 | 1018.7 |
| 20260505001724 | 85 | 0 | 0.0 | 0.0 | 0.00 | 0.02 | 0.00 | 60 | 1018.8 |
| 20260505001603 | 85 | 0 | 0.0 | 0.0 | 0.00 | 0.02 | 0.00 | 60 | 1018.7 |
| 20260505001504 | 85 | 0 | 0.0 | 0.0 | 0.00 | 0.02 | 0.00 | 60 | 1018.7 |
| 20260505001403 | 85 | 0 | 0.0 | 0.0 | 0.00 | 0.02 | 0.00 | 60 | 1018.8 |
| 20260505001304 | 85 | 150 | 0.0 | 1.0 | 0.00 | 0.02 | 0.00 | 60 | 1018.7 |
| 20260505001225 | 85 | 150 | 0.0 | 1.0 | 0.00 | 0.02 | 0.00 | 60 | 1018.6 |
| 20260505001103 | 85 | 160 | 0.0 | 1.0 | 0.00 | 0.02 | 0.00 | 60 | 1018.7 |
| 20260505001003 | 85 | 166 | 0.0 | 2.0 | 0.00 | 0.02 | 0.00 | 60 | 1018.7 |
| 20260505000904 | 85 | 153 | 0.0 | 2.0 | 0.00 | 0.02 | 0.00 | 60 | 1018.9 |
| 20260505000804 | 85 | 149 | 1.0 | 2.0 | 0.00 | 0.02 | 0.00 | 60 | 1018.8 |
| 20260505000703 | 85 | 143 | 1.0 | 2.0 | 0.00 | 0.02 | 0.00 | 60 | 1018.5 |
| 20260505000603 | 85 | 142 | 1.0 | 2.0 | 0.00 | 0.02 | 0.00 | 60 | 1018.6 |
| 20260505000503 | 85 | 149 | 1.0 | 2.0 | 0.00 | 0.02 | 0.00 | 60 | 1018.7 |
| 20260505000405 | 85 | 148 | 1.0 | 2.0 | 0.00 | 0.02 | 0.00 | 60 | 1018.6 |
| 20260505000303 | 85 | 148 | 1.0 | 2.0 | 0.00 | 0.02 | 0.00 | 60 | 1018.6 |
| 20260505000204 | 85 | 144 | 1.0 | 2.0 | 0.00 | 0.02 | 0.00 | 60 | 1018.4 |
| 20260505000124 | 85 | 144 | 1.0 | 2.0 | 0.00 | 0.02 | 0.00 | 60 | 1018.5 |
| 20260505000004 | 85 | 141 | 1.0 | 2.0 | 0.00 | 0.02 | 0.00 | 60 | 1018.6 |
| 20260504235904 | 85 | 146 | 1.0 | 3.0 | 0.00 | 0.02 | 0.00 | 60 | 1018.6 |
| 20260504235803 | 85 | 150 | 2.0 | 3.0 | 0.00 | 0.02 | 0.00 | 60 | 1018.6 |
| 20260504235704 | 85 | 152 | 2.0 | 3.0 | 0.00 | 0.02 | 0.00 | 60 | 1018.6 |
| 20260504235603 | 85 | 155 | 2.0 | 3.0 | 0.00 | 0.02 | 0.00 | 60 | 1018.5 |
| 20260504235503 | 85 | 154 | 2.0 | 3.0 | 0.00 | 0.02 | 0.00 | 60 | 1018.6 |
| 20260504235403 | 85 | 157 | 2.0 | 3.0 | 0.00 | 0.02 | 0.00 | 60 | 1018.7 |
| 20260504235304 | 85 | 158 | 2.0 | 3.0 | 0.00 | 0.02 | 0.00 | 60 | 1018.5 |
| 20260504235203 | 85 | 164 | 2.0 | 3.0 | 0.00 | 0.02 | 0.00 | 60 | 1018.5 |
| 20260504235103 | 85 | 165 | 2.0 | 3.0 | 0.00 | 0.02 | 0.00 | 60 | 1018.6 |
| 20260504235003 | 85 | 169 | 2.0 | 3.0 | 0.00 | 0.02 | 0.00 | 60 | 1018.5 |
| 20260504234903 | 85 | 172 | 2.0 | 3.0 | 0.00 | 0.02 | 0.00 | 60 | 1018.3 |
| 20260504234803 | 85 | 173 | 2.0 | 3.0 | 0.00 | 0.02 | 0.00 | 60 | 1018.5 |
| 20260504234703 | 85 | 174 | 2.0 | 3.0 | 0.00 | 0.02 | 0.00 | 60 | 1018.5 |
| 20260504234603 | 85 | 176 | 2.0 | 3.0 | 0.00 | 0.02 | 0.00 | 60 | 1018.5 |
| 20260504234524 | 85 | 178 | 2.0 | 3.0 | 0.00 | 0.02 | 0.00 | 60 | 1018.4 |
| 20260504234403 | 85 | 180 | 2.0 | 3.0 | 0.00 | 0.02 | 0.00 | 60 | 1018.5 |
| 20260504234304 | 85 | 180 | 2.0 | 3.0 | 0.00 | 0.02 | 0.00 | 60 | 1018.4 |
| 20260504234203 | 85 | 177 | 2.0 | 3.0 | 0.00 | 0.02 | 0.00 | 60 | 1018.4 |
| 20260504234105 | 85 | 178 | 2.0 | 3.0 | 0.00 | 0.02 | 0.00 | 60 | 1018.6 |
| 20260504234003 | 85 | 177 | 1.0 | 3.0 | 0.00 | 0.02 | 0.00 | 60 | 1018.4 |
| 20260504233904 | 85 | 176 | 1.0 | 3.0 | 0.00 | 0.02 | 0.00 | 60 | 1018.3 |
| 20260504233804 | 85 | 179 | 1.0 | 2.0 | 0.00 | 0.02 | 0.00 | 60 | 1018.4 |
| 20260504233703 | 85 | 179 | 1.0 | 2.0 | 0.00 | 0.02 | 0.00 | 60 | 1018.6 |
| 20260504233603 | 85 | 179 | 1.0 | 2.0 | 0.00 | 0.02 | 0.00 | 60 | 1018.4 |
| 20260504233503 | 85 | 179 | 1.0 | 2.0 | 0.00 | 0.02 | 0.00 | 60 | 1018.5 |
| 20260504233403 | 85 | 173 | 1.0 | 2.0 | 0.00 | 0.02 | 0.00 | 60 | 1018.4 |
| 20260504233303 | 85 | 171 | 0.0 | 2.0 | 0.00 | 0.02 | 0.00 | 60 | 1018.3 |
| 20260504233203 | 85 | 170 | 0.0 | 2.0 | 0.00 | 0.02 | 0.00 | 60 | 1018.5 |
| 20260504233103 | 85 | 0 | 0.0 | 0.0 | 0.00 | 0.02 | 0.00 | 60 | 1018.5 |
| 20260504233004 | 85 | 0 | 0.0 | 0.0 | 0.00 | 0.02 | 0.00 | 60 | 1018.5 |
| 20260504232903 | 85 | 0 | 0.0 | 0.0 | 0.00 | 0.02 | 0.00 | 60 | 1018.5 |
| 20260504232803 | 85 | 0 | 0.0 | 0.0 | 0.00 | 0.02 | 0.00 | 60 | 1018.6 |
| 20260504232704 | 85 | 0 | 0.0 | 0.0 | 0.00 | 0.02 | 0.00 | 60 | 1018.5 |
| 20260504232603 | 85 | 0 | 0.0 | 0.0 | 0.00 | 0.02 | 0.00 | 60 | 1018.5 |
| 20260504232504 | 85 | 0 | 0.0 | 0.0 | 0.00 | 0.02 | 0.00 | 60 | 1018.4 |
| 20260504232403 | 85 | 0 | 0.0 | 0.0 | 0.00 | 0.02 | 0.00 | 60 | 1018.4 |
| 20260504232304 | 85 | 0 | 0.0 | 0.0 | 0.00 | 0.02 | 0.00 | 60 | 1018.3 |
| 20260504232203 | 85 | 0 | 0.0 | 0.0 | 0.00 | 0.02 | 0.00 | 60 | 1018.3 |
| 20260504232103 | 85 | 0 | 0.0 | 0.0 | 0.00 | 0.02 | 0.00 | 60 | 1018.4 |
| 20260504232024 | 85 | 0 | 0.0 | 0.0 | 0.00 | 0.02 | 0.00 | 60 | 1018.5 |
| 20260504231903 | 85 | 0 | 0.0 | 0.0 | 0.00 | 0.02 | 0.00 | 60 | 1018.5 |
| 20260504231803 | 85 | 0 | 0.0 | 0.0 | 0.00 | 0.02 | 0.00 | 60 | 1018.3 |
| 20260504231703 | 85 | 0 | 0.0 | 0.0 | 0.00 | 0.02 | 0.00 | 60 | 1018.4 |
| 20260504231603 | 85 | 0 | 0.0 | 0.0 | 0.00 | 0.02 | 0.00 | 60 | 1018.4 |
| 20260504231503 | 85 | 0 | 0.0 | 0.0 | 0.00 | 0.02 | 0.00 | 60 | 1018.5 |
| 20260504231424 | 85 | 0 | 0.0 | 0.0 | 0.00 | 0.02 | 0.00 | 60 | 1018.6 |
| 20260504231303 | 85 | 0 | 0.0 | 0.0 | 0.00 | 0.02 | 0.00 | 60 | 1018.6 |
| 20260504231203 | 85 | 0 | 0.0 | 0.0 | 0.00 | 0.02 | 0.00 | 60 | 1018.6 |
| 20260504231103 | 85 | 0 | 0.0 | 0.0 | 0.00 | 0.02 | 0.00 | 60 | 1018.5 |
| 20260504231003 | 85 | 0 | 0.0 | 0.0 | 0.00 | 0.02 | 0.00 | 60 | 1018.4 |
| 20260504230905 | 85 | 0 | 0.0 | 0.0 | 0.00 | 0.02 | 0.00 | 60 | 1018.4 |
| 20260504230803 | 85 | 0 | 0.0 | 0.0 | 0.00 | 0.02 | 0.00 | 60 | 1018.5 |
| 20260504230703 | 85 | 0 | 0.0 | 0.0 | 0.00 | 0.02 | 0.00 | 60 | 1018.6 |
| 20260504230603 | 85 | 0 | 0.0 | 0.0 | 0.00 | 0.02 | 0.00 | 60 | 1018.5 |
| 20260504230503 | 85 | 0 | 0.0 | 0.0 | 0.00 | 0.02 | 0.00 | 60 | 1018.5 |
| 20260504230403 | 85 | 0 | 0.0 | 0.0 | 0.00 | 0.02 | 0.00 | 60 | 1018.6 |
| 20260504230303 | 85 | 0 | 0.0 | 0.0 | 0.00 | 0.02 | 0.00 | 60 | 1018.5 |
| 20260504230203 | 85 | 0 | 0.0 | 0.0 | 0.00 | 0.02 | 0.00 | 60 | 1018.4 |
| 20260504230103 | 85 | 0 | 0.0 | 0.0 | 0.00 | 0.02 | 0.00 | 60 | 1018.6 |
| 20260504230003 | 85 | 0 | 0.0 | 0.0 | 0.00 | 0.02 | 0.00 | 60 | 1018.7 |
| 20260504225903 | 85 | 0 | 0.0 | 0.0 | 0.00 | 0.02 | 0.00 | 60 | 1018.4 |
| 20260504225804 | 85 | 0 | 0.0 | 0.0 | 0.00 | 0.02 | 0.00 | 60 | 1018.7 |
| 20260504225725 | 85 | 0 | 0.0 | 0.0 | 0.00 | 0.02 | 0.00 | 60 | 1018.5 |
| 20260504225625 | 85 | 0 | 0.0 | 0.0 | 0.00 | 0.02 | 0.00 | 60 | 1018.4 |
| 20260504225525 | 85 | 0 | 0.0 | 0.0 | 0.00 | 0.02 | 0.00 | 60 | 1018.5 |
| 20260504225424 | 85 | 0 | 0.0 | 0.0 | 0.00 | 0.02 | 0.00 | 60 | 1018.3 |
| 20260504225304 | 85 | 0 | 0.0 | 0.0 | 0.00 | 0.02 | 0.00 | 60 | 1018.4 |
| 20260504225224 | 85 | 0 | 0.0 | 0.0 | 0.00 | 0.02 | 0.00 | 60 | 1018.5 |
| 20260504225103 | 85 | 0 | 0.0 | 0.0 | 0.00 | 0.02 | 0.00 | 60 | 1018.4 |
| 20260504225005 | 85 | 0 | 0.0 | 0.0 | 0.00 | 0.02 | 0.00 | 60 | 1018.1 |
| 20260504224903 | 85 | 0 | 0.0 | 0.0 | 0.00 | 0.02 | 0.00 | 60 | 1018.3 |
| 20260504224803 | 85 | 0 | 0.0 | 0.0 | 0.00 | 0.02 | 0.00 | 60 | 1018.4 |
| 20260504224703 | 85 | 0 | 0.0 | 0.0 | 0.00 | 0.02 | 0.00 | 60 | 1018.4 |
| 20260504224603 | 85 | 0 | 0.0 | 0.0 | 0.00 | 0.02 | 0.00 | 60 | 1018.4 |
| 20260504224503 | 85 | 0 | 0.0 | 0.0 | 0.00 | 0.02 | 0.00 | 60 | 1018.4 |
| 20260504224403 | 85 | 0 | 0.0 | 0.0 | 0.00 | 0.02 | 0.00 | 60 | 1018.4 |
| 20260504224303 | 85 | 0 | 0.0 | 0.0 | 0.00 | 0.02 | 0.00 | 60 | 1018.5 |
| 20260504224203 | 85 | 0 | 0.0 | 0.0 | 0.00 | 0.02 | 0.00 | 60 | 1018.4 |
| 20260504224103 | 85 | 0 | 0.0 | 0.0 | 0.00 | 0.02 | 0.00 | 60 | 1018.4 |
| 20260504224024 | 85 | 0 | 0.0 | 0.0 | 0.00 | 0.02 | 0.00 | 60 | 1018.4 |
| 20260504223903 | 85 | 0 | 0.0 | 0.0 | 0.00 | 0.02 | 0.00 | 60 | 1018.3 |
| 20260504223824 | 85 | 0 | 0.0 | 0.0 | 0.00 | 0.02 | 0.00 | 60 | 1018.4 |
| 20260504223703 | 85 | 0 | 0.0 | 0.0 | 0.00 | 0.02 | 0.00 | 60 | 1018.5 |
| 20260504223603 | 85 | 0 | 0.0 | 0.0 | 0.00 | 0.02 | 0.00 | 60 | 1018.5 |
| 20260504223503 | 85 | 0 | 0.0 | 0.0 | 0.00 | 0.02 | 0.00 | 60 | 1018.4 |
| 20260504223405 | 85 | 296 | 0.0 | 1.0 | 0.00 | 0.02 | 0.00 | 60 | 1018.4 |
| 20260504223303 | 85 | 296 | 0.0 | 1.0 | 0.00 | 0.02 | 0.00 | 60 | 1018.4 |
| 20260504223203 | 85 | 296 | 0.0 | 1.0 | 0.00 | 0.02 | 0.00 | 60 | 1018.4 |
| 20260504223103 | 85 | 296 | 0.0 | 1.0 | 0.00 | 0.02 | 0.00 | 60 | 1018.3 |
| 20260504223004 | 85 | 297 | 1.0 | 2.0 | 0.00 | 0.02 | 0.00 | 60 | 1018.4 |
| 20260504222903 | 85 | 297 | 1.0 | 2.0 | 0.00 | 0.02 | 0.00 | 60 | 1018.3 |
| 20260504222824 | 85 | 297 | 1.0 | 2.0 | 0.00 | 0.02 | 0.00 | 60 | 1018.5 |
| 20260504222703 | 85 | 297 | 1.0 | 2.0 | 0.00 | 0.02 | 0.00 | 60 | 1018.3 |
| 20260504222604 | 85 | 297 | 1.0 | 2.0 | 0.00 | 0.02 | 0.00 | 60 | 1018.4 |
| 20260504222504 | 85 | 297 | 1.0 | 2.0 | 0.00 | 0.02 | 0.00 | 60 | 1018.4 |
| 20260504222403 | 85 | 298 | 1.0 | 2.0 | 0.00 | 0.02 | 0.00 | 60 | 1018.3 |
| 20260504222324 | 85 | 298 | 1.0 | 2.0 | 0.00 | 0.02 | 0.00 | 60 | 1018.4 |
| 20260504222203 | 85 | 298 | 0.0 | 2.0 | 0.00 | 0.02 | 0.00 | 60 | 1018.3 |
| 20260504222103 | 85 | 299 | 0.0 | 2.0 | 0.00 | 0.02 | 0.00 | 60 | 1018.4 |
| 20260504222003 | 85 | 302 | 0.0 | 1.0 | 0.00 | 0.02 | 0.00 | 60 | 1018.4 |
| 20260504221903 | 85 | 302 | 0.0 | 1.0 | 0.00 | 0.02 | 0.00 | 60 | 1018.3 |
| 20260504221803 | 85 | 0 | 0.0 | 0.0 | 0.00 | 0.02 | 0.00 | 60 | 1018.4 |
| 20260504221705 | 85 | 0 | 0.0 | 0.0 | 0.00 | 0.02 | 0.00 | 60 | 1018.1 |
| 20260504221603 | 85 | 0 | 0.0 | 0.0 | 0.00 | 0.02 | 0.00 | 60 | 1018.3 |
| 20260504221503 | 85 | 0 | 0.0 | 0.0 | 0.00 | 0.02 | 0.00 | 60 | 1018.4 |
| 20260504221403 | 85 | 0 | 0.0 | 0.0 | 0.00 | 0.02 | 0.00 | 60 | 1018.3 |
| 20260504221303 | 85 | 0 | 0.0 | 0.0 | 0.00 | 0.02 | 0.00 | 60 | 1018.1 |
| 20260504221224 | 85 | 0 | 0.0 | 0.0 | 0.00 | 0.02 | 0.00 | 60 | 1018.4 |
| 20260504221103 | 85 | 0 | 0.0 | 0.0 | 0.00 | 0.02 | 0.00 | 60 | 1018.4 |
| 20260504221003 | 85 | 0 | 0.0 | 0.0 | 0.00 | 0.02 | 0.00 | 60 | 1018.3 |
| 20260504220903 | 85 | 0 | 0.0 | 0.0 | 0.00 | 0.02 | 0.00 | 60 | 1018.4 |
| 20260504220803 | 85 | 0 | 0.0 | 0.0 | 0.00 | 0.02 | 0.00 | 60 | 1018.5 |
| 20260504220703 | 85 | 0 | 0.0 | 0.0 | 0.00 | 0.02 | 0.00 | 60 | 1018.5 |
| 20260504220603 | 85 | 0 | 0.0 | 0.0 | 0.00 | 0.02 | 0.00 | 60 | 1018.1 |
| 20260504220524 | 85 | 0 | 0.0 | 0.0 | 0.00 | 0.02 | 0.00 | 60 | 1018.3 |
| 20260504220403 | 85 | 0 | 0.0 | 0.0 | 0.00 | 0.02 | 0.00 | 60 | 1018.1 |
| 20260504220303 | 85 | 0 | 0.0 | 0.0 | 0.00 | 0.02 | 0.00 | 60 | 1018.3 |
| 20260504220225 | 85 | 0 | 0.0 | 0.0 | 0.00 | 0.02 | 0.00 | 60 | 1018.3 |
| 20260504220124 | 85 | 0 | 0.0 | 0.0 | 0.00 | 0.02 | 0.00 | 60 | 1018.3 |
| 20260504220004 | 85 | 0 | 0.0 | 0.0 | 0.00 | 0.02 | 0.00 | 60 | 1018.4 |
| 20260504215903 | 85 | 0 | 0.0 | 0.0 | 0.00 | 0.02 | 0.00 | 60 | 1018.4 |
| 20260504215803 | 85 | 0 | 0.0 | 0.0 | 0.00 | 0.02 | 0.00 | 60 | 1018.1 |
| 20260504215703 | 85 | 0 | 0.0 | 0.0 | 0.00 | 0.02 | 0.00 | 60 | 1018.3 |
| 20260504215625 | 85 | 0 | 0.0 | 0.0 | 0.00 | 0.02 | 0.00 | 60 | 1018.3 |
| 20260504215524 | 85 | 0 | 0.0 | 0.0 | 0.00 | 0.02 | 0.00 | 60 | 1018.1 |
| 20260504215424 | 85 | 0 | 0.0 | 0.0 | 0.00 | 0.02 | 0.00 | 60 | 1018.4 |
| 20260504215324 | 85 | 0 | 0.0 | 0.0 | 0.00 | 0.02 | 0.00 | 60 | 1018.3 |
| 20260504215203 | 85 | 0 | 0.0 | 0.0 | 0.00 | 0.02 | 0.00 | 60 | 1018.4 |
| 20260504215103 | 85 | 0 | 0.0 | 0.0 | 0.00 | 0.02 | 0.00 | 60 | 1018.4 |
| 20260504215003 | 85 | 0 | 0.0 | 0.0 | 0.00 | 0.02 | 0.00 | 60 | 1018.4 |
| 20260504214903 | 85 | 0 | 0.0 | 0.0 | 0.00 | 0.02 | 0.00 | 60 | 1018.3 |
| 20260504214803 | 85 | 0 | 0.0 | 0.0 | 0.00 | 0.02 | 0.00 | 60 | 1018.3 |
| 20260504214703 | 85 | 0 | 0.0 | 0.0 | 0.00 | 0.02 | 0.00 | 60 | 1018.1 |
| 20260504214625 | 85 | 0 | 0.0 | 0.0 | 0.00 | 0.02 | 0.00 | 60 | 1018.4 |
| 20260504214503 | 85 | 0 | 0.0 | 0.0 | 0.00 | 0.02 | 0.00 | 60 | 1018.3 |
| 20260504214403 | 85 | 0 | 0.0 | 0.0 | 0.00 | 0.02 | 0.00 | 60 | 1018.3 |
| 20260504214303 | 85 | 0 | 0.0 | 0.0 | 0.00 | 0.02 | 0.00 | 60 | 1018.1 |
| 20260504214225 | 85 | 0 | 0.0 | 0.0 | 0.00 | 0.02 | 0.00 | 60 | 1018.1 |
| 20260504214124 | 85 | 0 | 0.0 | 0.0 | 0.00 | 0.02 | 0.00 | 60 | 1018.1 |
| 20260504214024 | 85 | 0 | 0.0 | 0.0 | 0.00 | 0.02 | 0.00 | 60 | 1018.3 |
| 20260504213924 | 85 | 0 | 0.0 | 0.0 | 0.00 | 0.02 | 0.00 | 60 | 1018.3 |
| 20260504213824 | 85 | 0 | 0.0 | 0.0 | 0.00 | 0.02 | 0.00 | 60 | 1018.0 |
| 20260504213724 | 85 | 0 | 0.0 | 0.0 | 0.00 | 0.02 | 0.00 | 60 | 1018.3 |
| 20260504213603 | 85 | 0 | 0.0 | 0.0 | 0.00 | 0.02 | 0.00 | 60 | 1018.1 |
| 20260504213504 | 85 | 0 | 0.0 | 0.0 | 0.00 | 0.02 | 0.00 | 60 | 1018.1 |
| 20260504213403 | 85 | 0 | 0.0 | 0.0 | 0.00 | 0.02 | 0.00 | 60 | 1018.1 |
| 20260504213303 | 85 | 0 | 0.0 | 0.0 | 0.00 | 0.02 | 0.00 | 60 | 1018.3 |
| 20260504213203 | 85 | 0 | 0.0 | 0.0 | 0.00 | 0.02 | 0.00 | 60 | 1018.1 |
| 20260504213103 | 85 | 0 | 0.0 | 0.0 | 0.00 | 0.02 | 0.00 | 60 | 1018.1 |
| 20260504213024 | 85 | 0 | 0.0 | 0.0 | 0.00 | 0.02 | 0.00 | 60 | 1018.1 |
| 20260504212903 | 85 | 0 | 0.0 | 0.0 | 0.00 | 0.02 | 0.00 | 60 | 1018.4 |
| 20260504212803 | 85 | 0 | 0.0 | 0.0 | 0.00 | 0.02 | 0.00 | 60 | 1018.1 |
| 20260504212703 | 85 | 0 | 0.0 | 0.0 | 0.00 | 0.02 | 0.00 | 60 | 1018.3 |
| 20260504212603 | 85 | 0 | 0.0 | 0.0 | 0.00 | 0.02 | 0.00 | 60 | 1018.4 |
| 20260504212524 | 85 | 0 | 0.0 | 0.0 | 0.00 | 0.02 | 0.00 | 60 | 1018.0 |
| 20260504212403 | 85 | 0 | 0.0 | 0.0 | 0.00 | 0.02 | 0.00 | 60 | 1018.1 |
| 20260504212305 | 85 | 0 | 0.0 | 0.0 | 0.00 | 0.02 | 0.00 | 60 | 1018.1 |
| 20260504212203 | 85 | 0 | 0.0 | 0.0 | 0.00 | 0.02 | 0.00 | 60 | 1017.9 |
| 20260504212125 | 85 | 0 | 0.0 | 0.0 | 0.00 | 0.02 | 0.00 | 60 | 1018.0 |
| 20260504212003 | 85 | 0 | 0.0 | 0.0 | 0.00 | 0.02 | 0.00 | 60 | 1018.1 |
| 20260504211903 | 85 | 0 | 0.0 | 0.0 | 0.00 | 0.02 | 0.00 | 60 | 1018.0 |
| 20260504211803 | 85 | 0 | 0.0 | 0.0 | 0.00 | 0.02 | 0.00 | 60 | 1018.0 |
| 20260504211703 | 85 | 0 | 0.0 | 0.0 | 0.00 | 0.02 | 0.00 | 60 | 1018.1 |
| 20260504211603 | 85 | 0 | 0.0 | 0.0 | 0.00 | 0.02 | 0.00 | 60 | 1017.8 |
| 20260504211525 | 85 | 0 | 0.0 | 0.0 | 0.00 | 0.02 | 0.00 | 60 | 1017.9 |
| 20260504211403 | 85 | 0 | 0.0 | 0.0 | 0.00 | 0.02 | 0.00 | 60 | 1017.9 |
| 20260504211303 | 85 | 278 | 0.0 | 1.0 | 0.00 | 0.02 | 0.00 | 60 | 1017.9 |
| 20260504211203 | 85 | 279 | 0.0 | 1.0 | 0.00 | 0.02 | 0.00 | 60 | 1017.9 |
| 20260504211103 | 85 | 279 | 0.0 | 1.0 | 0.00 | 0.02 | 0.00 | 60 | 1017.9 |
| 20260504211004 | 85 | 279 | 0.0 | 1.0 | 0.00 | 0.02 | 0.00 | 60 | 1017.9 |
| 20260504210903 | 85 | 280 | 0.0 | 1.0 | 0.00 | 0.02 | 0.00 | 60 | 1018.0 |
| 20260504210803 | 85 | 280 | 1.0 | 1.0 | 0.00 | 0.02 | 0.00 | 60 | 1018.0 |
| 20260504210725 | 85 | 280 | 1.0 | 1.0 | 0.00 | 0.02 | 0.00 | 60 | 1017.9 |
| 20260504210624 | 85 | 280 | 1.0 | 1.0 | 0.00 | 0.02 | 0.00 | 60 | 1018.0 |
| 20260504210504 | 85 | 278 | 1.0 | 2.0 | 0.00 | 0.02 | 0.00 | 60 | 1017.9 |
| 20260504210403 | 85 | 278 | 1.0 | 2.0 | 0.00 | 0.02 | 0.00 | 60 | 1017.8 |
| 20260504210324 | 85 | 278 | 1.0 | 2.0 | 0.00 | 0.02 | 0.00 | 60 | 1018.0 |
| 20260504210224 | 85 | 277 | 1.0 | 2.0 | 0.00 | 0.02 | 0.00 | 60 | 1017.9 |
| 20260504210004 | 85 | 277 | 1.0 | 2.0 | 0.00 | 0.02 | 0.00 | 60 | 1017.9 |
| 20260504205903 | 85 | 276 | 1.0 | 2.0 | 0.00 | 0.02 | 0.00 | 60 | 1017.9 |
| 20260504205803 | 85 | 275 | 1.0 | 2.0 | 0.00 | 0.02 | 0.00 | 60 | 1017.8 |
| 20260504205703 | 85 | 274 | 0.0 | 2.0 | 0.00 | 0.02 | 0.00 | 60 | 1017.8 |
| 20260504205603 | 85 | 269 | 0.0 | 2.0 | 0.00 | 0.02 | 0.00 | 60 | 1017.9 |
| 20260504205503 | 85 | 256 | 0.0 | 2.0 | 0.00 | 0.02 | 0.00 | 60 | 1017.8 |
| 20260504205403 | 85 | 239 | 0.0 | 1.0 | 0.00 | 0.02 | 0.00 | 60 | 1017.7 |
| 20260504205304 | 85 | 240 | 0.0 | 1.0 | 0.00 | 0.02 | 0.00 | 60 | 1017.7 |
| 20260504205203 | 85 | 237 | 0.0 | 1.0 | 0.00 | 0.02 | 0.00 | 60 | 1017.8 |
| 20260504205104 | 85 | 233 | 1.0 | 2.0 | 0.00 | 0.02 | 0.00 | 60 | 1017.9 |
| 20260504205024 | 85 | 234 | 1.0 | 2.0 | 0.00 | 0.02 | 0.00 | 60 | 1017.9 |
| 20260504204904 | 85 | 233 | 1.0 | 2.0 | 0.00 | 0.02 | 0.00 | 60 | 1018.0 |
| 20260504204803 | 85 | 234 | 1.0 | 2.0 | 0.00 | 0.02 | 0.00 | 60 | 1017.9 |
| 20260504204704 | 85 | 234 | 1.0 | 2.0 | 0.00 | 0.02 | 0.00 | 60 | 1017.9 |
| 20260504204603 | 85 | 231 | 1.0 | 2.0 | 0.00 | 0.02 | 0.00 | 60 | 1018.0 |
| 20260504204524 | 85 | 230 | 1.0 | 2.0 | 0.00 | 0.02 | 0.00 | 60 | 1017.9 |
| 20260504204403 | 85 | 226 | 1.0 | 2.0 | 0.00 | 0.02 | 0.00 | 60 | 1017.9 |
| 20260504204303 | 85 | 224 | 1.0 | 2.0 | 0.00 | 0.02 | 0.00 | 60 | 1018.0 |
| 20260504204203 | 85 | 221 | 1.0 | 2.0 | 0.00 | 0.02 | 0.00 | 60 | 1017.8 |
| 20260504204103 | 85 | 221 | 1.0 | 2.0 | 0.00 | 0.02 | 0.00 | 60 | 1017.9 |
| 20260504204003 | 85 | 219 | 2.0 | 3.0 | 0.00 | 0.02 | 0.00 | 60 | 1017.9 |
| 20260504203903 | 85 | 211 | 2.0 | 3.0 | 0.00 | 0.02 | 0.00 | 60 | 1018.1 |
| 20260504203803 | 85 | 202 | 2.0 | 3.0 | 0.00 | 0.02 | 0.00 | 60 | 1018.0 |
| 20260504203703 | 85 | 196 | 2.0 | 3.0 | 0.00 | 0.02 | 0.00 | 60 | 1018.1 |
| 20260504203603 | 85 | 193 | 2.0 | 3.0 | 0.00 | 0.02 | 0.00 | 60 | 1018.3 |
| 20260504203524 | 85 | 191 | 2.0 | 3.0 | 0.00 | 0.02 | 0.00 | 60 | 1018.0 |
| 20260504203403 | 85 | 182 | 2.0 | 3.0 | 0.00 | 0.02 | 0.00 | 60 | 1018.3 |
| 20260504203303 | 85 | 174 | 2.0 | 3.0 | 0.00 | 0.02 | 0.00 | 60 | 1018.0 |
| 20260504203203 | 85 | 161 | 2.0 | 3.0 | 0.00 | 0.02 | 0.00 | 60 | 1018.1 |
| 20260504203105 | 85 | 157 | 2.0 | 3.0 | 0.00 | 0.02 | 0.00 | 60 | 1018.1 |
| 20260504203003 | 85 | 148 | 2.0 | 3.0 | 0.00 | 0.02 | 0.00 | 60 | 1018.3 |
| 20260504202904 | 85 | 144 | 1.0 | 3.0 | 0.00 | 0.02 | 0.00 | 60 | 1018.1 |
| 20260504202803 | 85 | 138 | 1.0 | 3.0 | 0.00 | 0.02 | 0.00 | 60 | 1018.1 |
| 20260504202724 | 85 | 135 | 1.0 | 3.0 | 0.00 | 0.02 | 0.00 | 60 | 1018.0 |
| 20260504202603 | 85 | 130 | 1.0 | 3.0 | 0.00 | 0.02 | 0.00 | 60 | 1018.1 |
| 20260504202503 | 85 | 124 | 1.0 | 3.0 | 0.00 | 0.02 | 0.00 | 60 | 1018.1 |
| 20260504202403 | 85 | 114 | 1.0 | 2.0 | 0.00 | 0.02 | 0.00 | 60 | 1018.1 |
| 20260504202304 | 85 | 111 | 0.0 | 2.0 | 0.00 | 0.02 | 0.00 | 60 | 1018.0 |
| 20260504202203 | 85 | 104 | 0.0 | 2.0 | 0.00 | 0.02 | 0.00 | 60 | 1018.1 |
| 20260504202103 | 85 | 0 | 0.0 | 0.0 | 0.00 | 0.02 | 0.00 | 60 | 1018.0 |
| 20260504202024 | 85 | 0 | 0.0 | 0.0 | 0.00 | 0.02 | 0.00 | 60 | 1018.0 |
| 20260504201903 | 85 | 0 | 0.0 | 0.0 | 0.00 | 0.02 | 0.00 | 60 | 1017.9 |
| 20260504201803 | 85 | 0 | 0.0 | 0.0 | 0.00 | 0.02 | 0.00 | 60 | 1017.9 |
| 20260504201703 | 85 | 0 | 0.0 | 0.0 | 0.00 | 0.02 | 0.00 | 60 | 1018.1 |
| 20260504201603 | 85 | 0 | 0.0 | 0.0 | 0.00 | 0.02 | 0.00 | 60 | 1018.1 |
| 20260504201524 | 85 | 0 | 0.0 | 0.0 | 0.00 | 0.02 | 0.00 | 60 | 1018.0 |
| 20260504201403 | 85 | 0 | 0.0 | 0.0 | 0.00 | 0.02 | 0.00 | 60 | 1018.0 |
| 20260504201303 | 85 | 0 | 0.0 | 0.0 | 0.00 | 0.02 | 0.00 | 60 | 1018.1 |
| 20260504201224 | 85 | 0 | 0.0 | 0.0 | 0.00 | 0.02 | 0.00 | 60 | 1018.0 |
| 20260504201104 | 85 | 0 | 0.0 | 0.0 | 0.00 | 0.02 | 0.00 | 60 | 1018.0 |
| 20260504201005 | 85 | 0 | 0.0 | 0.0 | 0.00 | 0.02 | 0.00 | 60 | 1018.0 |
| 20260504200903 | 85 | 0 | 0.0 | 0.0 | 0.00 | 0.02 | 0.00 | 60 | 1018.1 |
| 20260504200803 | 85 | 0 | 0.0 | 0.0 | 0.00 | 0.02 | 0.00 | 60 | 1018.0 |
| 20260504200703 | 85 | 0 | 0.0 | 0.0 | 0.00 | 0.02 | 0.00 | 60 | 1018.0 |
| 20260504200603 | 85 | 0 | 0.0 | 0.0 | 0.00 | 0.02 | 0.00 | 60 | 1018.0 |
| 20260504200503 | 85 | 0 | 0.0 | 0.0 | 0.00 | 0.02 | 0.00 | 60 | 1018.0 |
| 20260504200403 | 85 | 0 | 0.0 | 0.0 | 0.00 | 0.02 | 0.00 | 60 | 1018.0 |
| 20260504200303 | 85 | 0 | 0.0 | 0.0 | 0.00 | 0.02 | 0.00 | 60 | 1017.9 |
| 20260504200203 | 85 | 0 | 0.0 | 0.0 | 0.00 | 0.02 | 0.00 | 60 | 1018.0 |
| 20260504200103 | 85 | 0 | 0.0 | 0.0 | 0.00 | 0.02 | 0.00 | 60 | 1018.0 |
| 20260504200004 | 85 | 0 | 0.0 | 0.0 | 0.00 | 0.02 | 0.00 | 60 | 1018.1 |
| 20260504195903 | 85 | 0 | 0.0 | 0.0 | 0.00 | 0.02 | 0.00 | 60 | 1018.3 |
| 20260504195803 | 85 | 0 | 0.0 | 0.0 | 0.00 | 0.02 | 0.00 | 60 | 1018.0 |
| 20260504195703 | 85 | 0 | 0.0 | 0.0 | 0.00 | 0.02 | 0.00 | 60 | 1018.0 |
| 20260504195625 | 85 | 0 | 0.0 | 0.0 | 0.00 | 0.02 | 0.00 | 60 | 1018.0 |
| 20260504195503 | 85 | 0 | 0.0 | 0.0 | 0.00 | 0.02 | 0.00 | 60 | 1018.0 |
| 20260504195403 | 85 | 0 | 0.0 | 0.0 | 0.00 | 0.02 | 0.00 | 60 | 1018.0 |
| 20260504195304 | 85 | 0 | 0.0 | 0.0 | 0.00 | 0.02 | 0.00 | 60 | 1018.1 |
| 20260504195224 | 85 | 0 | 0.0 | 0.0 | 0.00 | 0.02 | 0.00 | 60 | 1018.1 |
| 20260504195103 | 85 | 0 | 0.0 | 0.0 | 0.00 | 0.02 | 0.00 | 60 | 1018.0 |
| 20260504195003 | 85 | 0 | 0.0 | 0.0 | 0.00 | 0.02 | 0.00 | 60 | 1018.0 |
| 20260504194903 | 85 | 0 | 0.0 | 0.0 | 0.00 | 0.02 | 0.00 | 60 | 1018.1 |
| 20260504194824 | 85 | 0 | 0.0 | 0.0 | 0.00 | 0.02 | 0.00 | 60 | 1018.1 |
| 20260504194724 | 85 | 0 | 0.0 | 0.0 | 0.00 | 0.02 | 0.00 | 60 | 1018.1 |
| 20260504194603 | 85 | 0 | 0.0 | 0.0 | 0.00 | 0.02 | 0.00 | 60 | 1018.4 |
| 20260504194503 | 85 | 0 | 0.0 | 0.0 | 0.00 | 0.02 | 0.00 | 60 | 1018.0 |
| 20260504194403 | 85 | 0 | 0.0 | 0.0 | 0.00 | 0.02 | 0.00 | 60 | 1018.3 |
| 20260504194303 | 85 | 0 | 0.0 | 0.0 | 0.00 | 0.02 | 0.00 | 60 | 1018.0 |
| 20260504194203 | 85 | 0 | 0.0 | 0.0 | 0.00 | 0.02 | 0.00 | 60 | 1018.1 |
| 20260504194103 | 85 | 0 | 0.0 | 0.0 | 0.00 | 0.02 | 0.00 | 60 | 1018.1 |
| 20260504194024 | 85 | 0 | 0.0 | 0.0 | 0.00 | 0.02 | 0.00 | 60 | 1018.3 |
| 20260504193903 | 85 | 0 | 0.0 | 0.0 | 0.00 | 0.02 | 0.00 | 60 | 1018.1 |
| 20260504193804 | 85 | 0 | 0.0 | 0.0 | 0.00 | 0.02 | 0.00 | 60 | 1018.1 |
| 20260504193703 | 85 | 0 | 0.0 | 0.0 | 0.00 | 0.02 | 0.00 | 60 | 1018.1 |
| 20260504193605 | 85 | 0 | 0.0 | 0.0 | 0.00 | 0.02 | 0.00 | 60 | 1018.1 |
| 20260504193503 | 85 | 266 | 0.0 | 1.0 | 0.00 | 0.02 | 0.00 | 60 | 1018.1 |
| 20260504193403 | 85 | 222 | 0.0 | 2.0 | 0.00 | 0.02 | 0.00 | 60 | 1018.3 |
| 20260504193304 | 85 | 222 | 0.0 | 2.0 | 0.00 | 0.02 | 0.00 | 60 | 1018.1 |
| 20260504193203 | 85 | 235 | 0.0 | 2.0 | 0.00 | 0.02 | 0.00 | 60 | 1018.0 |
| 20260504193124 | 85 | 247 | 0.0 | 2.0 | 0.00 | 0.02 | 0.00 | 60 | 1018.0 |
| 20260504193025 | 85 | 260 | 1.0 | 3.0 | 0.00 | 0.02 | 0.00 | 60 | 1018.0 |
| 20260504192903 | 85 | 265 | 1.0 | 3.0 | 0.00 | 0.02 | 0.00 | 60 | 1017.9 |
| 20260504192803 | 85 | 267 | 1.0 | 3.0 | 0.00 | 0.02 | 0.00 | 60 | 1018.3 |
| 20260504192724 | 85 | 267 | 1.0 | 3.0 | 0.00 | 0.02 | 0.00 | 60 | 1018.1 |
| 20260504192603 | 85 | 268 | 2.0 | 3.0 | 0.00 | 0.02 | 0.00 | 60 | 1018.3 |
| 20260504192504 | 85 | 268 | 2.0 | 3.0 | 0.00 | 0.02 | 0.00 | 60 | 1018.1 |
| 20260504192403 | 85 | 270 | 2.0 | 3.0 | 0.00 | 0.02 | 0.00 | 60 | 1018.3 |
| 20260504192304 | 85 | 269 | 2.0 | 3.0 | 0.00 | 0.02 | 0.00 | 60 | 1018.3 |
| 20260504192224 | 85 | 267 | 2.0 | 3.0 | 0.00 | 0.02 | 0.00 | 60 | 1018.1 |
| 20260504192124 | 85 | 265 | 2.0 | 3.0 | 0.00 | 0.02 | 0.00 | 60 | 1018.1 |
| 20260504192004 | 85 | 260 | 2.0 | 3.0 | 0.00 | 0.02 | 0.00 | 60 | 1018.1 |
| 20260504191925 | 85 | 260 | 2.0 | 3.0 | 0.00 | 0.02 | 0.00 | 60 | 1018.0 |
| 20260504191803 | 85 | 257 | 1.0 | 3.0 | 0.00 | 0.02 | 0.00 | 60 | 1018.3 |
| 20260504191725 | 85 | 252 | 1.0 | 3.0 | 0.00 | 0.02 | 0.00 | 60 | 1018.1 |
| 20260504191604 | 85 | 242 | 1.0 | 2.0 | 0.00 | 0.02 | 0.00 | 60 | 1018.3 |
| 20260504191504 | 85 | 234 | 1.0 | 2.0 | 0.00 | 0.02 | 0.00 | 60 | 1018.3 |
| 20260504191403 | 85 | 224 | 1.0 | 2.0 | 0.00 | 0.02 | 0.00 | 60 | 1018.1 |
| 20260504191303 | 85 | 220 | 1.0 | 2.0 | 0.00 | 0.02 | 0.00 | 60 | 1018.3 |
| 20260504191204 | 85 | 216 | 1.0 | 2.0 | 0.00 | 0.02 | 0.00 | 60 | 1018.3 |
| 20260504191103 | 85 | 216 | 1.0 | 2.0 | 0.00 | 0.02 | 0.00 | 60 | 1018.3 |
| 20260504191004 | 85 | 212 | 1.0 | 2.0 | 0.00 | 0.02 | 0.00 | 60 | 1018.3 |
| 20260504190903 | 85 | 209 | 1.0 | 2.0 | 0.00 | 0.02 | 0.00 | 60 | 1018.1 |
| 20260504190803 | 85 | 207 | 1.0 | 2.0 | 0.00 | 0.02 | 0.00 | 60 | 1018.4 |
| 20260504190724 | 85 | 202 | 1.0 | 2.0 | 0.00 | 0.02 | 0.00 | 60 | 1018.4 |
| 20260504190624 | 85 | 196 | 2.0 | 2.0 | 0.00 | 0.02 | 0.00 | 60 | 1018.5 |
| 20260504190524 | 85 | 193 | 2.0 | 2.0 | 0.00 | 0.02 | 0.00 | 60 | 1018.5 |
| 20260504190403 | 85 | 190 | 2.0 | 2.0 | 0.00 | 0.02 | 0.00 | 60 | 1018.4 |
| 20260504190303 | 85 | 188 | 1.0 | 2.0 | 0.00 | 0.02 | 0.00 | 60 | 1018.5 |
| 20260504190203 | 85 | 186 | 1.0 | 2.0 | 0.00 | 0.02 | 0.00 | 60 | 1018.5 |
| 20260504190103 | 85 | 184 | 1.0 | 2.0 | 0.00 | 0.02 | 0.00 | 60 | 1018.5 |
| 20260504190004 | 85 | 181 | 1.0 | 2.0 | 0.00 | 0.02 | 0.00 | 60 | 1018.5 |
| 20260504185925 | 85 | 181 | 1.0 | 2.0 | 0.00 | 0.02 | 0.00 | 60 | 1018.5 |
| 20260504185804 | 85 | 186 | 1.0 | 2.0 | 0.00 | 0.02 | 0.00 | 60 | 1018.4 |
| 20260504185704 | 85 | 192 | 1.0 | 2.0 | 0.00 | 0.02 | 0.00 | 60 | 1018.6 |
| 20260504185604 | 85 | 199 | 1.0 | 2.0 | 0.00 | 0.02 | 0.00 | 60 | 1018.5 |
| 20260504185504 | 85 | 202 | 1.0 | 2.0 | 0.00 | 0.02 | 0.00 | 60 | 1018.4 |
| 20260504185404 | 85 | 201 | 1.0 | 2.0 | 0.00 | 0.02 | 0.00 | 60 | 1018.6 |
| 20260504185304 | 85 | 202 | 1.0 | 2.0 | 0.00 | 0.02 | 0.00 | 60 | 1018.6 |
| 20260504185203 | 85 | 203 | 1.0 | 2.0 | 0.00 | 0.02 | 0.00 | 60 | 1018.5 |
| 20260504185124 | 85 | 203 | 1.0 | 2.0 | 0.00 | 0.02 | 0.00 | 60 | 1018.5 |
| 20260504185003 | 85 | 205 | 1.0 | 2.0 | 0.00 | 0.02 | 0.00 | 60 | 1018.6 |
| 20260504184903 | 85 | 209 | 1.0 | 2.0 | 0.00 | 0.02 | 0.00 | 60 | 1018.7 |
| 20260504184803 | 85 | 211 | 0.0 | 2.0 | 0.00 | 0.02 | 0.00 | 60 | 1018.4 |
| 20260504184703 | 85 | 206 | 0.0 | 2.0 | 0.00 | 0.02 | 0.00 | 60 | 1018.4 |
| 20260504184604 | 85 | 202 | 0.0 | 2.0 | 0.00 | 0.02 | 0.00 | 60 | 1018.4 |
| 20260504184525 | 85 | 198 | 0.0 | 2.0 | 0.00 | 0.02 | 0.00 | 60 | 1018.3 |
| 20260504184424 | 85 | 198 | 0.0 | 2.0 | 0.00 | 0.02 | 0.00 | 60 | 1018.5 |
| 20260504184303 | 85 | 198 | 0.0 | 2.0 | 0.00 | 0.02 | 0.00 | 60 | 1018.3 |
| 20260504184204 | 85 | 196 | 0.0 | 2.0 | 0.00 | 0.02 | 0.00 | 60 | 1018.4 |
| 20260504184103 | 85 | 196 | 0.0 | 2.0 | 0.00 | 0.02 | 0.00 | 60 | 1018.5 |
| 20260504184005 | 85 | 0 | 0.0 | 0.0 | 0.00 | 0.02 | 0.00 | 60 | 1018.5 |
| 20260504183703 | 85 | 0 | 0.0 | 0.0 | 0.00 | 0.02 | 0.00 | 60 | 1018.4 |
| 20260504183603 | 85 | 0 | 0.0 | 0.0 | 0.00 | 0.02 | 0.00 | 60 | 1018.5 |
| 20260504183503 | 85 | 0 | 0.0 | 0.0 | 0.00 | 0.02 | 0.00 | 60 | 1018.4 |
| 20260504183424 | 85 | 0 | 0.0 | 0.0 | 0.00 | 0.02 | 0.00 | 60 | 1018.4 |
| 20260504183325 | 85 | 0 | 0.0 | 0.0 | 0.00 | 0.02 | 0.00 | 60 | 1018.4 |
| 20260504183204 | 85 | 0 | 0.0 | 0.0 | 0.00 | 0.02 | 0.00 | 60 | 1018.6 |
| 20260504183103 | 85 | 0 | 0.0 | 0.0 | 0.00 | 0.02 | 0.00 | 60 | 1018.5 |
| 20260504183004 | 85 | 0 | 0.0 | 0.0 | 0.00 | 0.02 | 0.00 | 60 | 1018.5 |
| 20260504182904 | 85 | 0 | 0.0 | 0.0 | 0.00 | 0.02 | 0.02 | 60 | 1018.5 |
| 20260504182803 | 85 | 0 | 0.0 | 0.0 | 0.00 | 0.02 | 0.02 | 60 | 1018.5 |
| 20260504182703 | 85 | 0 | 0.0 | 0.0 | 0.00 | 0.02 | 0.02 | 60 | 1018.4 |
| 20260504182604 | 85 | 0 | 0.0 | 0.0 | 0.00 | 0.02 | 0.02 | 60 | 1018.4 |
| 20260504182503 | 85 | 0 | 0.0 | 0.0 | 0.00 | 0.02 | 0.02 | 60 | 1018.5 |
| 20260504182403 | 85 | 0 | 0.0 | 0.0 | 0.00 | 0.02 | 0.02 | 60 | 1018.5 |
| 20260504182304 | 85 | 0 | 0.0 | 0.0 | 0.00 | 0.02 | 0.02 | 60 | 1018.6 |
| 20260504182205 | 85 | 0 | 0.0 | 0.0 | 0.00 | 0.02 | 0.02 | 60 | 1018.4 |
| 20260504182103 | 85 | 0 | 0.0 | 0.0 | 0.00 | 0.02 | 0.02 | 60 | 1018.4 |
| 20260504182003 | 85 | 0 | 0.0 | 0.0 | 0.00 | 0.02 | 0.02 | 60 | 1018.5 |
| 20260504181903 | 85 | 0 | 0.0 | 0.0 | 0.00 | 0.02 | 0.02 | 60 | 1018.4 |
| 20260504181804 | 85 | 0 | 0.0 | 0.0 | 0.00 | 0.02 | 0.02 | 60 | 1018.4 |
| 20260504181725 | 85 | 0 | 0.0 | 0.0 | 0.00 | 0.02 | 0.02 | 60 | 1018.3 |
| 20260504181603 | 85 | 0 | 0.0 | 0.0 | 0.00 | 0.02 | 0.02 | 60 | 1018.4 |
| 20260504181503 | 85 | 196 | 0.0 | 2.0 | 0.00 | 0.02 | 0.02 | 60 | 1018.4 |
| 20260504181403 | 85 | 187 | 0.0 | 2.0 | 0.00 | 0.02 | 0.02 | 60 | 1018.4 |
| 20260504181303 | 85 | 184 | 0.0 | 2.0 | 0.00 | 0.02 | 0.02 | 60 | 1018.5 |
| 20260504181204 | 85 | 177 | 0.0 | 2.0 | 0.00 | 0.02 | 0.02 | 60 | 1018.4 |
| 20260504181103 | 85 | 173 | 1.0 | 2.0 | 0.00 | 0.02 | 0.02 | 60 | 1018.6 |
| 20260504181004 | 85 | 172 | 1.0 | 2.0 | 0.00 | 0.02 | 0.02 | 60 | 1018.5 |
| 20260504180903 | 85 | 171 | 1.0 | 2.0 | 0.00 | 0.02 | 0.02 | 60 | 1018.5 |
| 20260504180824 | 85 | 170 | 1.0 | 2.0 | 0.00 | 0.02 | 0.02 | 60 | 1018.5 |
| 20260504180704 | 85 | 169 | 1.0 | 2.0 | 0.00 | 0.02 | 0.02 | 60 | 1018.5 |
| 20260504180624 | 85 | 169 | 1.0 | 2.0 | 0.00 | 0.02 | 0.02 | 60 | 1018.5 |
| 20260504180505 | 85 | 159 | 2.0 | 2.0 | 0.00 | 0.02 | 0.02 | 60 | 1018.6 |
| 20260504180424 | 85 | 156 | 2.0 | 2.0 | 0.00 | 0.02 | 0.02 | 60 | 1018.4 |
| 20260504180304 | 85 | 151 | 2.0 | 2.0 | 0.00 | 0.02 | 0.02 | 60 | 1018.5 |
| 20260504180203 | 85 | 150 | 2.0 | 2.0 | 0.00 | 0.02 | 0.02 | 60 | 1018.4 |
| 20260504180104 | 85 | 149 | 1.0 | 2.0 | 0.00 | 0.02 | 0.02 | 60 | 1018.5 |
| 20260504180004 | 85 | 147 | 1.0 | 2.0 | 0.00 | 0.02 | 0.02 | 60 | 1018.7 |
| 20260504175903 | 85 | 145 | 1.0 | 2.0 | 0.00 | 0.02 | 0.02 | 60 | 1018.6 |
| 20260504175803 | 85 | 141 | 1.0 | 2.0 | 0.00 | 0.02 | 0.02 | 60 | 1018.6 |
| 20260504175704 | 85 | 136 | 1.0 | 2.0 | 0.00 | 0.02 | 0.02 | 60 | 1018.6 |
| 20260504175603 | 85 | 121 | 1.0 | 2.0 | 0.00 | 0.02 | 0.02 | 60 | 1018.8 |
| 20260504175504 | 85 | 115 | 0.0 | 2.0 | 0.00 | 0.02 | 0.02 | 60 | 1018.6 |
| 20260504175404 | 85 | 106 | 0.0 | 2.0 | 0.00 | 0.02 | 0.02 | 60 | 1018.6 |
| 20260504175304 | 85 | 0 | 0.0 | 0.0 | 0.00 | 0.02 | 0.02 | 60 | 1018.6 |
| 20260504175204 | 85 | 0 | 0.0 | 0.0 | 0.00 | 0.02 | 0.02 | 60 | 1018.4 |
| 20260504175103 | 85 | 0 | 0.0 | 0.0 | 0.00 | 0.02 | 0.02 | 60 | 1018.6 |
| 20260504175003 | 85 | 0 | 0.0 | 0.0 | 0.00 | 0.02 | 0.02 | 60 | 1018.5 |
| 20260504174924 | 85 | 0 | 0.0 | 0.0 | 0.00 | 0.02 | 0.02 | 60 | 1018.6 |
| 20260504174826 | 85 | 0 | 0.0 | 0.0 | 0.00 | 0.02 | 0.02 | 60 | 1018.6 |
| 20260504174703 | 85 | 0 | 0.0 | 0.0 | 0.00 | 0.02 | 0.02 | 60 | 1018.4 |
| 20260504174603 | 85 | 0 | 0.0 | 0.0 | 0.00 | 0.02 | 0.02 | 60 | 1018.5 |
| 20260504174525 | 85 | 0 | 0.0 | 0.0 | 0.00 | 0.02 | 0.02 | 60 | 1018.4 |
| 20260504174403 | 85 | 0 | 0.0 | 0.0 | 0.00 | 0.02 | 0.02 | 60 | 1018.4 |
| 20260504174304 | 85 | 0 | 0.0 | 0.0 | 0.00 | 0.02 | 0.02 | 60 | 1018.4 |
| 20260504174224 | 85 | 0 | 0.0 | 0.0 | 0.00 | 0.02 | 0.02 | 60 | 1018.6 |
| 20260504174103 | 85 | 0 | 0.0 | 0.0 | 0.00 | 0.02 | 0.02 | 60 | 1018.5 |
| 20260504174003 | 85 | 0 | 0.0 | 0.0 | 0.00 | 0.02 | 0.02 | 60 | 1018.5 |
| 20260504173903 | 85 | 0 | 0.0 | 0.0 | 0.00 | 0.02 | 0.02 | 60 | 1018.6 |
| 20260504173803 | 85 | 0 | 0.0 | 0.0 | 0.00 | 0.02 | 0.02 | 60 | 1018.5 |
| 20260504173724 | 85 | 0 | 0.0 | 0.0 | 0.00 | 0.02 | 0.02 | 60 | 1018.7 |
| 20260504173603 | 85 | 0 | 0.0 | 0.0 | 0.00 | 0.02 | 0.02 | 60 | 1018.5 |
| 20260504173503 | 85 | 0 | 0.0 | 0.0 | 0.00 | 0.02 | 0.02 | 60 | 1018.7 |
| 20260504173403 | 85 | 0 | 0.0 | 0.0 | 0.00 | 0.02 | 0.02 | 60 | 1018.7 |
| 20260504173304 | 85 | 281 | 0.0 | 1.0 | 0.00 | 0.02 | 0.02 | 60 | 1018.8 |
| 20260504173203 | 85 | 280 | 0.0 | 1.0 | 0.00 | 0.02 | 0.02 | 60 | 1018.8 |
| 20260504173103 | 85 | 280 | 0.0 | 1.0 | 0.00 | 0.02 | 0.02 | 60 | 1018.7 |
| 20260504173005 | 85 | 280 | 0.0 | 1.0 | 0.00 | 0.02 | 0.02 | 60 | 1018.5 |
| 20260504172904 | 85 | 280 | 0.0 | 1.0 | 0.00 | 0.02 | 0.02 | 60 | 1018.6 |
| 20260504172804 | 85 | 279 | 0.0 | 1.0 | 0.00 | 0.02 | 0.02 | 60 | 1018.8 |
| 20260504172703 | 85 | 279 | 0.0 | 1.0 | 0.00 | 0.02 | 0.02 | 60 | 1018.7 |
| 20260504172603 | 85 | 279 | 0.0 | 1.0 | 0.00 | 0.02 | 0.02 | 60 | 1018.6 |
| 20260504172504 | 85 | 279 | 0.0 | 1.0 | 0.00 | 0.02 | 0.02 | 60 | 1018.5 |
| 20260504172403 | 85 | 279 | 0.0 | 1.0 | 0.00 | 0.02 | 0.02 | 60 | 1018.6 |
| 20260504172304 | 85 | 279 | 0.0 | 1.0 | 0.00 | 0.02 | 0.02 | 60 | 1018.6 |
| 20260504172203 | 85 | 279 | 0.0 | 1.0 | 0.00 | 0.02 | 0.02 | 60 | 1018.7 |
| 20260504172124 | 85 | 278 | 0.0 | 2.0 | 0.00 | 0.02 | 0.02 | 60 | 1018.8 |
| 20260504172024 | 85 | 274 | 0.0 | 2.0 | 0.00 | 0.02 | 0.02 | 60 | 1018.8 |
| 20260504171904 | 85 | 270 | 1.0 | 2.0 | 0.00 | 0.02 | 0.02 | 60 | 1018.8 |
| 20260504171824 | 85 | 270 | 1.0 | 2.0 | 0.00 | 0.02 | 0.02 | 60 | 1018.8 |
| 20260504171703 | 85 | 264 | 1.0 | 2.0 | 0.00 | 0.02 | 0.02 | 60 | 1018.6 |
| 20260504171603 | 85 | 265 | 1.0 | 2.0 | 0.00 | 0.02 | 0.02 | 60 | 1018.6 |
| 20260504171504 | 85 | 265 | 1.0 | 2.0 | 0.00 | 0.02 | 0.02 | 60 | 1018.8 |
| 20260504171403 | 85 | 260 | 1.0 | 2.0 | 0.00 | 0.02 | 0.02 | 60 | 1018.9 |
| 20260504171305 | 85 | 257 | 1.0 | 2.0 | 0.00 | 0.02 | 0.02 | 60 | 1018.6 |
| 20260504171203 | 85 | 253 | 1.0 | 3.0 | 0.00 | 0.02 | 0.02 | 60 | 1018.9 |
| 20260504171103 | 85 | 250 | 1.0 | 3.0 | 0.00 | 0.02 | 0.02 | 60 | 1018.9 |
| 20260504171004 | 85 | 243 | 1.0 | 3.0 | 0.00 | 0.02 | 0.02 | 60 | 1018.9 |
| 20260504170903 | 85 | 234 | 1.0 | 3.0 | 0.00 | 0.02 | 0.02 | 60 | 1018.9 |
| 20260504170804 | 85 | 230 | 2.0 | 3.0 | 0.00 | 0.02 | 0.02 | 60 | 1018.7 |
| 20260504170703 | 85 | 230 | 1.0 | 3.0 | 0.00 | 0.02 | 0.02 | 60 | 1018.8 |
| 20260504170603 | 85 | 226 | 1.0 | 3.0 | 0.00 | 0.02 | 0.02 | 60 | 1018.7 |
| 20260504170503 | 85 | 217 | 1.0 | 3.0 | 0.00 | 0.02 | 0.02 | 60 | 1018.9 |
| 20260504170403 | 85 | 204 | 1.0 | 3.0 | 0.00 | 0.02 | 0.02 | 60 | 1018.8 |
| 20260504170304 | 85 | 193 | 1.0 | 3.0 | 0.00 | 0.02 | 0.02 | 60 | 1018.9 |
| 20260504170203 | 85 | 175 | 2.0 | 3.0 | 0.00 | 0.02 | 0.02 | 60 | 1018.8 |
| 20260504160403 | 85 | 316 | 0.0 | 2.0 | 0.00 | 0.02 | 0.02 | 60 | 1018.7 |
| 20260504160304 | 85 | 355 | 0.0 | 1.0 | 0.00 | 0.02 | 0.02 | 60 | 1018.7 |
| 20260504160203 | 85 | 44 | 0.0 | 1.0 | 0.00 | 0.02 | 0.02 | 60 | 1018.7 |
| 20260504160103 | 85 | 58 | 0.0 | 1.0 | 0.00 | 0.02 | 0.02 | 60 | 1018.6 |
| 20260504151103 | 85 | 0 | 0.0 | 0.0 | 0.00 | 0.02 | 0.02 | 60 | 1018.3 |
| 20260504151003 | 85 | 284 | 0.0 | 1.0 | 0.00 | 0.02 | 0.02 | 60 | 1018.3 |
| 20260504150903 | 85 | 283 | 0.0 | 1.0 | 0.00 | 0.02 | 0.02 | 60 | 1018.1 |
| 20260504150803 | 85 | 283 | 0.0 | 2.0 | 0.00 | 0.02 | 0.02 | 60 | 1018.0 |
| 20260504150724 | 85 | 284 | 1.0 | 2.0 | 0.00 | 0.02 | 0.02 | 60 | 1018.0 |
| 20260504150624 | 85 | 285 | 1.0 | 2.0 | 0.00 | 0.02 | 0.02 | 60 | 1018.1 |
| 20260504150504 | 85 | 286 | 1.0 | 2.0 | 0.00 | 0.02 | 0.02 | 60 | 1018.0 |
| 20260504150403 | 85 | 287 | 1.0 | 2.0 | 0.00 | 0.02 | 0.02 | 60 | 1018.0 |
| 20260504150303 | 85 | 287 | 1.0 | 2.0 | 0.00 | 0.02 | 0.02 | 60 | 1018.1 |
| 20260504150203 | 85 | 287 | 1.0 | 2.0 | 0.00 | 0.02 | 0.02 | 60 | 1018.0 |
| 20260504150103 | 85 | 288 | 1.0 | 2.0 | 0.00 | 0.02 | 0.02 | 60 | 1018.1 |
| 20260504141324 | 85 | 293 | 1.0 | 2.0 | 0.00 | 0.02 | 0.02 | 60 | 1017.4 |
| 20260504141203 | 85 | 293 | 1.0 | 2.0 | 0.00 | 0.02 | 0.02 | 60 | 1017.4 |
| 20260504141125 | 85 | 292 | 1.0 | 2.0 | 0.00 | 0.02 | 0.02 | 60 | 1017.3 |
| 20260504141024 | 85 | 291 | 1.0 | 2.0 | 0.00 | 0.02 | 0.02 | 60 | 1017.4 |
| 20260504140903 | 85 | 292 | 1.0 | 2.0 | 0.00 | 0.02 | 0.02 | 60 | 1017.4 |
| 20260504140803 | 85 | 291 | 1.0 | 2.0 | 0.00 | 0.02 | 0.02 | 60 | 1017.3 |
| 20260504140703 | 85 | 290 | 1.0 | 2.0 | 0.00 | 0.02 | 0.02 | 60 | 1017.3 |
| 20260504140603 | 85 | 288 | 1.0 | 2.0 | 0.00 | 0.02 | 0.02 | 60 | 1017.3 |
| 20260504140524 | 85 | 288 | 1.0 | 2.0 | 0.00 | 0.02 | 0.02 | 60 | 1017.3 |
| 20260504140403 | 85 | 283 | 1.0 | 2.0 | 0.00 | 0.02 | 0.02 | 60 | 1017.2 |
| 20260504140304 | 85 | 280 | 1.0 | 2.0 | 0.00 | 0.02 | 0.02 | 60 | 1017.2 |
| 20260504140203 | 85 | 273 | 1.0 | 2.0 | 0.00 | 0.02 | 0.02 | 60 | 1017.1 |
| 20260504140103 | 85 | 269 | 1.0 | 2.0 | 0.00 | 0.02 | 0.02 | 60 | 1017.2 |
| 20260504130804 | 85 | 325 | 2.0 | 3.0 | 0.00 | 0.02 | 0.02 | 60 | 1016.5 |
| 20260504130703 | 85 | 325 | 2.0 | 3.0 | 0.00 | 0.02 | 0.02 | 60 | 1016.4 |
| 20260504130603 | 85 | 323 | 3.0 | 3.0 | 0.00 | 0.02 | 0.02 | 60 | 1016.5 |
| 20260504130503 | 85 | 321 | 3.0 | 3.0 | 0.00 | 0.02 | 0.02 | 60 | 1016.4 |
| 20260504130403 | 85 | 322 | 3.0 | 3.0 | 0.00 | 0.02 | 0.02 | 60 | 1016.3 |
| 20260504130325 | 85 | 322 | 3.0 | 3.0 | 0.00 | 0.02 | 0.02 | 60 | 1016.4 |
| 20260504130203 | 85 | 324 | 3.0 | 3.0 | 0.00 | 0.02 | 0.02 | 60 | 1016.4 |
| 20260504130104 | 85 | 324 | 3.0 | 3.0 | 0.00 | 0.02 | 0.02 | 60 | 1016.4 |
| 20260504120203 | 85 | 334 | 4.0 | 6.0 | 0.00 | 0.06 | 0.02 | 60 | 1015.9 |
| 20260504120103 | 85 | 335 | 4.0 | 6.0 | 0.00 | 0.06 | 0.02 | 60 | 1015.9 |
| 20260504110624 | 85 | 2 | 5.0 | 8.0 | 0.00 | 0.08 | 0.02 | 60 | 1015.8 |
| 20260504110503 | 85 | 2 | 6.0 | 8.0 | 0.00 | 0.08 | 0.02 | 60 | 1015.6 |
| 20260504110403 | 85 | 5 | 6.0 | 8.0 | 0.00 | 0.08 | 0.02 | 60 | 1015.8 |
| 20260504110303 | 85 | 4 | 6.0 | 8.0 | 0.00 | 0.08 | 0.02 | 60 | 1015.4 |
| 20260504110224 | 85 | 6 | 6.0 | 9.0 | 0.00 | 0.08 | 0.02 | 60 | 1015.9 |
| 20260504110103 | 85 | 8 | 7.0 | 9.0 | 0.00 | 0.08 | 0.02 | 60 | 1015.8 |
| 20260504100524 | 85 | 358 | 5.0 | 7.0 | 0.00 | 0.08 | 0.02 | 60 | 1016.1 |
| 20260504100403 | 85 | 2 | 5.0 | 7.0 | 0.00 | 0.08 | 0.02 | 60 | 1016.0 |
| 20260504100303 | 85 | 2 | 5.0 | 7.0 | 0.00 | 0.08 | 0.02 | 60 | 1015.9 |
| 20260504100205 | 85 | 2 | 4.0 | 7.0 | 0.00 | 0.08 | 0.02 | 60 | 1015.9 |
| 20260504100103 | 85 | 5 | 4.0 | 7.0 | 0.00 | 0.08 | 0.02 | 60 | 1016.0 |
| 20260504082003 | 85 | 269 | 2.0 | 4.0 | 0.00 | 0.08 | 0.02 | 60 | 1017.2 |
| 20260504081904 | 85 | 273 | 2.0 | 4.0 | 0.00 | 0.08 | 0.02 | 60 | 1017.4 |
| 20260504081803 | 85 | 285 | 2.0 | 4.0 | 0.00 | 0.08 | 0.02 | 60 | 1017.3 |
| 20260504081703 | 85 | 289 | 2.0 | 4.0 | 0.00 | 0.08 | 0.02 | 60 | 1017.2 |
| 20260504081603 | 85 | 298 | 3.0 | 4.0 | 0.00 | 0.08 | 0.02 | 60 | 1017.4 |
| 20260504081524 | 85 | 298 | 3.0 | 4.0 | 0.00 | 0.08 | 0.02 | 60 | 1017.5 |
| 20260504081403 | 85 | 304 | 3.0 | 6.0 | 0.00 | 0.08 | 0.02 | 60 | 1017.3 |
| 20260504081303 | 85 | 299 | 3.0 | 6.0 | 0.00 | 0.08 | 0.02 | 60 | 1017.4 |
| 20260504081203 | 85 | 291 | 4.0 | 6.0 | 0.00 | 0.08 | 0.02 | 60 | 1017.5 |
| 20260504081103 | 85 | 287 | 4.0 | 6.0 | 0.00 | 0.08 | 0.02 | 60 | 1017.4 |
| 20260504081003 | 85 | 288 | 4.0 | 6.0 | 0.00 | 0.08 | 0.02 | 60 | 1017.5 |
| 20260504080903 | 85 | 287 | 4.0 | 6.0 | 0.00 | 0.08 | 0.02 | 60 | 1017.7 |
| 20260504080803 | 85 | 286 | 4.0 | 6.0 | 0.00 | 0.08 | 0.02 | 60 | 1017.5 |
| 20260504080703 | 85 | 282 | 4.0 | 6.0 | 0.00 | 0.08 | 0.02 | 60 | 1017.6 |
| 20260504080603 | 85 | 283 | 3.0 | 6.0 | 0.00 | 0.08 | 0.02 | 60 | 1017.5 |
| 20260504080503 | 85 | 287 | 3.0 | 6.0 | 0.00 | 0.08 | 0.02 | 60 | 1017.7 |
| 20260504080403 | 85 | 287 | 3.0 | 6.0 | 0.00 | 0.08 | 0.02 | 60 | 1017.7 |
| 20260504080324 | 85 | 287 | 3.0 | 6.0 | 0.00 | 0.08 | 0.02 | 60 | 1017.5 |
| 20260504080205 | 85 | 298 | 2.0 | 4.0 | 0.00 | 0.08 | 0.02 | 60 | 1017.6 |
| 20260504070303 | 85 | 2 | 4.0 | 6.0 | 0.02 | 0.08 | 0.02 | 60 | 1018.7 |
| 20260504070203 | 85 | 4 | 4.0 | 6.0 | 0.02 | 0.08 | 0.02 | 60 | 1018.6 |
| 20260504070104 | 85 | 5 | 4.0 | 6.0 | 0.02 | 0.08 | 0.02 | 60 | 1018.8 |
| 20260504060203 | 85 | 1 | 5.0 | 7.0 | 0.00 | 0.06 | 0.00 | 60 | 1019.4 |
| 20260504060104 | 85 | 359 | 5.0 | 7.0 | 0.00 | 0.06 | 0.00 | 60 | 1019.5 |
| 20260504050703 | 85 | 345 | 6.0 | 7.0 | 0.00 | 0.06 | 0.00 | 60 | 1019.7 |
| 20260504050603 | 85 | 342 | 6.0 | 8.0 | 0.00 | 0.06 | 0.00 | 60 | 1019.9 |
| 20260504050503 | 85 | 341 | 6.0 | 8.0 | 0.00 | 0.06 | 0.00 | 60 | 1019.8 |
| 20260504050403 | 85 | 342 | 5.0 | 8.0 | 0.00 | 0.06 | 0.00 | 60 | 1019.8 |
| 20260504050303 | 85 | 339 | 5.0 | 8.0 | 0.00 | 0.06 | 0.00 | 60 | 1019.7 |
| 20260504050204 | 85 | 341 | 6.0 | 8.0 | 0.00 | 0.06 | 0.00 | 60 | 1019.8 |
| 20260504050104 | 85 | 343 | 5.0 | 8.0 | 0.00 | 0.06 | 0.00 | 60 | 1019.8 |
| 20260504050004 | 85 | 348 | 6.0 | 8.0 | 0.00 | 0.06 | 0.00 | 60 | 1019.7 |
| 20260504045924 | 85 | 349 | 6.0 | 8.0 | 0.00 | 0.06 | 0.00 | 60 | 1019.9 |
| 20260504045803 | 85 | 352 | 6.0 | 8.0 | 0.00 | 0.06 | 0.00 | 60 | 1019.8 |
| 20260504045724 | 85 | 350 | 5.0 | 8.0 | 0.00 | 0.06 | 0.00 | 60 | 1019.8 |
| 20260504045603 | 85 | 350 | 5.0 | 8.0 | 0.00 | 0.06 | 0.00 | 60 | 1019.8 |
| 20260504045503 | 85 | 350 | 5.0 | 8.0 | 0.00 | 0.06 | 0.00 | 60 | 1019.8 |
| 20260504045403 | 85 | 353 | 5.0 | 8.0 | 0.00 | 0.06 | 0.00 | 60 | 1019.8 |
| 20260504045304 | 85 | 358 | 5.0 | 8.0 | 0.00 | 0.06 | 0.00 | 60 | 1019.7 |
| 20260504045203 | 85 | 1 | 5.0 | 8.0 | 0.00 | 0.06 | 0.00 | 60 | 1019.9 |
| 20260504045103 | 85 | 4 | 5.0 | 8.0 | 0.00 | 0.06 | 0.00 | 60 | 1020.0 |
| 20260504045004 | 85 | 6 | 5.0 | 8.0 | 0.00 | 0.06 | 0.00 | 60 | 1019.9 |
| 20260504044903 | 85 | 359 | 5.0 | 8.0 | 0.00 | 0.06 | 0.00 | 60 | 1019.9 |
| 20260504044803 | 85 | 354 | 4.0 | 6.0 | 0.00 | 0.06 | 0.00 | 60 | 1019.9 |
| 20260504044703 | 85 | 353 | 5.0 | 7.0 | 0.00 | 0.06 | 0.00 | 60 | 1019.8 |
| 20260504044604 | 85 | 353 | 5.0 | 7.0 | 0.00 | 0.06 | 0.00 | 60 | 1020.0 |
| 20260504044504 | 85 | 353 | 5.0 | 8.0 | 0.00 | 0.06 | 0.00 | 60 | 1019.8 |
| 20260504044424 | 85 | 352 | 5.0 | 8.0 | 0.00 | 0.06 | 0.00 | 60 | 1020.0 |
| 20260504044303 | 85 | 346 | 5.0 | 8.0 | 0.00 | 0.06 | 0.00 | 60 | 1020.0 |
| 20260504044203 | 85 | 345 | 6.0 | 8.0 | 0.00 | 0.06 | 0.00 | 60 | 1019.9 |
| 20260504044104 | 85 | 342 | 6.0 | 8.0 | 0.00 | 0.06 | 0.00 | 60 | 1020.0 |
| 20260504044003 | 85 | 340 | 6.0 | 8.0 | 0.00 | 0.06 | 0.00 | 60 | 1020.1 |
| 20260504043903 | 85 | 343 | 6.0 | 8.0 | 0.00 | 0.06 | 0.00 | 60 | 1020.0 |
| 20260504043803 | 85 | 348 | 6.0 | 9.0 | 0.00 | 0.06 | 0.00 | 60 | 1020.0 |
| 20260504043724 | 85 | 350 | 6.0 | 9.0 | 0.00 | 0.06 | 0.00 | 60 | 1019.9 |
| 20260504043603 | 85 | 350 | 6.0 | 9.0 | 0.00 | 0.06 | 0.00 | 60 | 1019.9 |
| 20260504043503 | 85 | 351 | 6.0 | 9.0 | 0.00 | 0.06 | 0.00 | 60 | 1019.9 |
| 20260504043403 | 85 | 350 | 6.0 | 9.0 | 0.00 | 0.06 | 0.00 | 60 | 1020.0 |
| 20260504043303 | 85 | 350 | 6.0 | 9.0 | 0.00 | 0.06 | 0.00 | 60 | 1020.0 |
| 20260504043203 | 85 | 351 | 6.0 | 9.0 | 0.00 | 0.06 | 0.00 | 60 | 1020.1 |
| 20260504043104 | 85 | 351 | 6.0 | 9.0 | 0.00 | 0.06 | 0.00 | 60 | 1020.0 |
| 20260504043003 | 85 | 349 | 6.0 | 9.0 | 0.00 | 0.06 | 0.00 | 60 | 1020.1 |
| 20260504042903 | 85 | 345 | 6.0 | 9.0 | 0.00 | 0.06 | 0.00 | 60 | 1020.1 |
| 20260504042803 | 85 | 340 | 5.0 | 7.0 | 0.00 | 0.06 | 0.00 | 60 | 1020.0 |
| 20260504042724 | 85 | 343 | 6.0 | 8.0 | 0.00 | 0.06 | 0.00 | 60 | 1019.8 |
| 20260504042603 | 85 | 349 | 5.0 | 8.0 | 0.00 | 0.06 | 0.00 | 60 | 1019.9 |
| 20260504042503 | 85 | 348 | 5.0 | 8.0 | 0.00 | 0.06 | 0.00 | 60 | 1019.9 |
| 20260504042403 | 85 | 349 | 5.0 | 8.0 | 0.00 | 0.06 | 0.00 | 60 | 1020.0 |
| 20260504042304 | 85 | 352 | 6.0 | 8.0 | 0.00 | 0.06 | 0.00 | 60 | 1020.1 |
| 20260504042203 | 85 | 350 | 5.0 | 8.0 | 0.00 | 0.06 | 0.00 | 60 | 1020.1 |
| 20260504042104 | 85 | 349 | 5.0 | 8.0 | 0.00 | 0.06 | 0.00 | 60 | 1019.9 |
| 20260504042024 | 85 | 353 | 5.0 | 8.0 | 0.00 | 0.06 | 0.00 | 60 | 1020.2 |
| 20260504041903 | 85 | 356 | 5.0 | 8.0 | 0.00 | 0.06 | 0.00 | 60 | 1020.0 |
| 20260504041824 | 85 | 358 | 5.0 | 8.0 | 0.00 | 0.06 | 0.00 | 60 | 1019.9 |
| 20260504041703 | 85 | 353 | 4.0 | 7.0 | 0.00 | 0.06 | 0.00 | 60 | 1020.1 |
| 20260504041625 | 85 | 352 | 4.0 | 7.0 | 0.00 | 0.06 | 0.00 | 60 | 1020.1 |
| 20260504041503 | 85 | 351 | 4.0 | 7.0 | 0.00 | 0.06 | 0.00 | 60 | 1020.0 |
| 20260504041424 | 85 | 352 | 4.0 | 7.0 | 0.00 | 0.06 | 0.00 | 60 | 1020.0 |
| 20260504041304 | 85 | 348 | 4.0 | 6.0 | 0.00 | 0.06 | 0.00 | 60 | 1020.0 |
| 20260504041204 | 85 | 352 | 4.0 | 7.0 | 0.00 | 0.06 | 0.00 | 60 | 1019.9 |
| 20260504041103 | 85 | 353 | 4.0 | 7.0 | 0.00 | 0.06 | 0.00 | 60 | 1019.9 |
| 20260504041003 | 85 | 351 | 4.0 | 7.0 | 0.00 | 0.06 | 0.00 | 60 | 1020.0 |
| 20260504040903 | 85 | 348 | 4.0 | 7.0 | 0.00 | 0.06 | 0.00 | 60 | 1020.1 |
| 20260504040803 | 85 | 349 | 5.0 | 7.0 | 0.00 | 0.06 | 0.00 | 60 | 1019.9 |
| 20260504040724 | 85 | 351 | 5.0 | 9.0 | 0.00 | 0.06 | 0.00 | 60 | 1020.1 |
| 20260504040603 | 85 | 351 | 6.0 | 9.0 | 0.00 | 0.06 | 0.00 | 60 | 1020.0 |
| 20260504040503 | 85 | 349 | 6.0 | 9.0 | 0.00 | 0.06 | 0.00 | 60 | 1019.9 |
| 20260504040424 | 85 | 349 | 6.0 | 9.0 | 0.00 | 0.06 | 0.00 | 60 | 1020.0 |
| 20260504040324 | 85 | 347 | 6.0 | 9.0 | 0.00 | 0.06 | 0.00 | 60 | 1020.0 |
| 20260504040224 | 85 | 347 | 6.0 | 9.0 | 0.00 | 0.06 | 0.00 | 60 | 1020.0 |
| 20260504040103 | 85 | 346 | 6.0 | 9.0 | 0.00 | 0.06 | 0.00 | 60 | 1020.0 |
| 20260504040024 | 85 | 343 | 6.0 | 9.0 | 0.00 | 0.06 | 0.00 | 60 | 1020.0 |
| 20260504035903 | 85 | 344 | 6.0 | 9.0 | 0.00 | 0.06 | 0.00 | 60 | 1019.9 |
| 20260504035824 | 85 | 346 | 6.0 | 9.0 | 0.00 | 0.06 | 0.00 | 60 | 1019.9 |
| 20260504035703 | 85 | 343 | 6.0 | 10.0 | 0.00 | 0.06 | 0.00 | 60 | 1019.8 |
| 20260504035603 | 85 | 340 | 6.0 | 10.0 | 0.00 | 0.06 | 0.00 | 60 | 1020.0 |
| 20260504035503 | 85 | 340 | 6.0 | 10.0 | 0.00 | 0.06 | 0.00 | 60 | 1019.7 |
| 20260504035403 | 85 | 336 | 6.0 | 10.0 | 0.00 | 0.06 | 0.00 | 60 | 1019.9 |
| 20260504035326 | 85 | 337 | 6.0 | 10.0 | 0.00 | 0.06 | 0.00 | 60 | 1019.8 |
| 20260504035203 | 85 | 337 | 6.0 | 10.0 | 0.00 | 0.06 | 0.00 | 60 | 1019.9 |
| 20260504035103 | 85 | 338 | 6.0 | 10.0 | 0.00 | 0.06 | 0.00 | 60 | 1019.9 |
| 20260504035024 | 85 | 337 | 6.0 | 10.0 | 0.00 | 0.06 | 0.00 | 60 | 1019.9 |
| 20260504034924 | 85 | 336 | 6.0 | 10.0 | 0.00 | 0.06 | 0.00 | 60 | 1020.0 |
| 20260504034824 | 85 | 336 | 7.0 | 10.0 | 0.00 | 0.06 | 0.00 | 60 | 1019.9 |
| 20260504034703 | 85 | 337 | 6.0 | 9.0 | 0.00 | 0.06 | 0.00 | 60 | 1019.9 |
| 20260504034603 | 85 | 339 | 6.0 | 9.0 | 0.00 | 0.06 | 0.00 | 60 | 1019.8 |
| 20260504034524 | 85 | 340 | 6.0 | 9.0 | 0.00 | 0.06 | 0.00 | 60 | 1020.0 |
| 20260504034403 | 85 | 341 | 6.0 | 9.0 | 0.00 | 0.06 | 0.00 | 60 | 1019.9 |
| 20260504034303 | 85 | 345 | 5.0 | 9.0 | 0.00 | 0.06 | 0.00 | 60 | 1019.9 |
| 20260504034203 | 85 | 348 | 5.0 | 9.0 | 0.00 | 0.06 | 0.00 | 60 | 1019.8 |
| 20260504034103 | 85 | 347 | 5.0 | 9.0 | 0.00 | 0.06 | 0.00 | 60 | 1019.9 |
| 20260504034004 | 85 | 350 | 5.0 | 9.0 | 0.00 | 0.06 | 0.00 | 60 | 1019.8 |
| 20260504033903 | 85 | 353 | 5.0 | 9.0 | 0.00 | 0.06 | 0.00 | 60 | 1019.8 |
| 20260504033803 | 85 | 351 | 6.0 | 9.0 | 0.00 | 0.06 | 0.00 | 60 | 1019.9 |
| 20260504033705 | 85 | 345 | 6.0 | 9.0 | 0.00 | 0.06 | 0.00 | 60 | 1019.7 |
| 20260504033603 | 85 | 342 | 6.0 | 9.0 | 0.00 | 0.06 | 0.00 | 60 | 1019.8 |
| 20260504033503 | 85 | 341 | 6.0 | 10.0 | 0.00 | 0.06 | 0.00 | 60 | 1019.7 |
| 20260504033403 | 85 | 344 | 6.0 | 10.0 | 0.00 | 0.06 | 0.00 | 60 | 1019.8 |
| 20260504033303 | 85 | 340 | 7.0 | 10.0 | 0.00 | 0.06 | 0.00 | 60 | 1019.8 |
| 20260504033203 | 85 | 337 | 7.0 | 10.0 | 0.00 | 0.06 | 0.00 | 60 | 1019.8 |
| 20260504033104 | 85 | 336 | 7.0 | 10.0 | 0.00 | 0.06 | 0.00 | 60 | 1019.9 |
| 20260504033003 | 85 | 335 | 7.0 | 10.0 | 0.00 | 0.06 | 0.00 | 60 | 1019.8 |
| 20260504032903 | 85 | 334 | 7.0 | 10.0 | 0.00 | 0.06 | 0.00 | 60 | 1019.7 |
| 20260504032803 | 85 | 336 | 7.0 | 10.0 | 0.00 | 0.06 | 0.00 | 60 | 1019.8 |
| 20260504032703 | 85 | 341 | 6.0 | 10.0 | 0.00 | 0.06 | 0.00 | 60 | 1019.9 |
| 20260504032603 | 85 | 342 | 6.0 | 10.0 | 0.00 | 0.06 | 0.00 | 60 | 1019.9 |
| 20260504032524 | 85 | 342 | 6.0 | 10.0 | 0.00 | 0.06 | 0.00 | 60 | 1019.9 |
| 20260504032403 | 85 | 343 | 6.0 | 8.0 | 0.00 | 0.06 | 0.00 | 60 | 1019.8 |
| 20260504032304 | 85 | 347 | 6.0 | 8.0 | 0.00 | 0.06 | 0.00 | 60 | 1019.9 |
| 20260504032203 | 85 | 350 | 6.0 | 8.0 | 0.00 | 0.06 | 0.00 | 60 | 1019.8 |
| 20260504032105 | 85 | 352 | 5.0 | 8.0 | 0.00 | 0.06 | 0.00 | 60 | 1019.7 |
| 20260504032003 | 85 | 356 | 5.0 | 8.0 | 0.00 | 0.06 | 0.00 | 60 | 1019.9 |
| 20260504031903 | 85 | 355 | 5.0 | 8.0 | 0.00 | 0.06 | 0.00 | 60 | 1019.7 |
| 20260504031824 | 85 | 355 | 4.0 | 8.0 | 0.00 | 0.06 | 0.00 | 60 | 1019.8 |
| 20260504031703 | 85 | 360 | 4.0 | 8.0 | 0.00 | 0.06 | 0.00 | 60 | 1019.8 |
| 20260504031624 | 85 | 8 | 4.0 | 8.0 | 0.00 | 0.06 | 0.00 | 60 | 1019.8 |
| 20260504031503 | 85 | 17 | 4.0 | 9.0 | 0.00 | 0.06 | 0.00 | 60 | 1019.6 |
| 20260504031403 | 85 | 22 | 4.0 | 9.0 | 0.00 | 0.06 | 0.00 | 60 | 1019.9 |
| 20260504031303 | 85 | 20 | 4.0 | 9.0 | 0.00 | 0.06 | 0.00 | 60 | 1019.8 |
| 20260504031203 | 85 | 19 | 4.0 | 9.0 | 0.00 | 0.06 | 0.00 | 60 | 1019.8 |
| 20260504031103 | 85 | 17 | 4.0 | 9.0 | 0.00 | 0.06 | 0.00 | 60 | 1019.7 |
| 20260504031003 | 85 | 19 | 4.0 | 9.0 | 0.00 | 0.06 | 0.00 | 60 | 1019.5 |
| 20260504030924 | 85 | 19 | 4.0 | 9.0 | 0.00 | 0.06 | 0.00 | 60 | 1019.6 |
| 20260504030825 | 85 | 20 | 4.0 | 9.0 | 0.00 | 0.06 | 0.00 | 60 | 1019.7 |
| 20260504030703 | 85 | 21 | 4.0 | 9.0 | 0.00 | 0.06 | 0.00 | 60 | 1019.7 |
| 20260504030604 | 85 | 21 | 4.0 | 9.0 | 0.00 | 0.07 | 0.00 | 60 | 1019.7 |
| 20260504030504 | 85 | 17 | 3.0 | 6.0 | 0.00 | 0.07 | 0.00 | 60 | 1019.6 |
| 20260504030424 | 85 | 19 | 3.0 | 6.0 | 0.00 | 0.07 | 0.00 | 60 | 1019.7 |
| 20260504030303 | 85 | 23 | 3.0 | 6.0 | 0.00 | 0.07 | 0.00 | 60 | 1019.6 |
| 20260504030224 | 85 | 28 | 3.0 | 6.0 | 0.00 | 0.07 | 0.00 | 60 | 1019.6 |
| 20260504030004 | 85 | 37 | 3.0 | 7.0 | 0.00 | 0.07 | 0.00 | 60 | 1019.5 |
| 20260504025903 | 85 | 38 | 3.0 | 7.0 | 0.00 | 0.07 | 0.00 | 60 | 1019.6 |
| 20260504025803 | 85 | 42 | 3.0 | 7.0 | 0.00 | 0.07 | 0.00 | 60 | 1019.6 |
| 20260504025703 | 85 | 40 | 4.0 | 7.0 | 0.00 | 0.07 | 0.00 | 60 | 1019.5 |
| 20260504025603 | 85 | 39 | 4.0 | 7.0 | 0.00 | 0.07 | 0.00 | 60 | 1019.5 |
| 20260504025524 | 85 | 38 | 4.0 | 7.0 | 0.00 | 0.07 | 0.00 | 60 | 1019.6 |
| 20260504025403 | 85 | 35 | 4.0 | 7.0 | 0.00 | 0.08 | 0.00 | 60 | 1019.7 |
| 20260504025304 | 85 | 35 | 3.0 | 7.0 | 0.00 | 0.08 | 0.00 | 60 | 1019.6 |
| 20260504025224 | 85 | 35 | 3.0 | 7.0 | 0.00 | 0.09 | 0.00 | 60 | 1019.6 |
| 20260504025103 | 85 | 32 | 3.0 | 7.0 | 0.00 | 0.09 | 0.00 | 60 | 1019.7 |
| 20260504025003 | 85 | 26 | 3.0 | 7.0 | 0.00 | 0.10 | 0.00 | 60 | 1019.6 |
| 20260504024905 | 85 | 21 | 3.0 | 7.0 | 0.00 | 0.11 | 0.00 | 60 | 1019.6 |
| 20260504024803 | 85 | 12 | 4.0 | 7.0 | 0.00 | 0.12 | 0.00 | 60 | 1019.6 |
| 20260504024724 | 85 | 5 | 3.0 | 7.0 | 0.00 | 0.12 | 0.00 | 60 | 1019.6 |
| 20260504024603 | 85 | 355 | 3.0 | 7.0 | 0.00 | 0.14 | 0.00 | 60 | 1019.7 |
| 20260504024503 | 85 | 354 | 4.0 | 7.0 | 0.00 | 0.14 | 0.00 | 60 | 1019.5 |
| 20260504024424 | 85 | 355 | 4.0 | 7.0 | 0.00 | 0.15 | 0.00 | 60 | 1019.6 |
| 20260504024303 | 85 | 360 | 4.0 | 7.0 | 0.00 | 0.15 | 0.00 | 60 | 1019.5 |
| 20260504024203 | 85 | 1 | 4.0 | 7.0 | 0.00 | 0.15 | 0.00 | 60 | 1019.5 |
| 20260504024103 | 85 | 1 | 4.0 | 7.0 | 0.00 | 0.15 | 0.00 | 60 | 1019.5 |
| 20260504024003 | 85 | 7 | 4.0 | 7.0 | 0.00 | 0.16 | 0.00 | 60 | 1019.6 |
| 20260504023903 | 85 | 10 | 4.0 | 6.0 | 0.00 | 0.16 | 0.00 | 60 | 1019.4 |
| 20260504023824 | 85 | 14 | 4.0 | 6.0 | 0.00 | 0.16 | 0.00 | 60 | 1019.5 |
| 20260504023703 | 85 | 19 | 4.0 | 6.0 | 0.00 | 0.16 | 0.00 | 60 | 1019.7 |
| 20260504023604 | 85 | 22 | 4.0 | 6.0 | 0.00 | 0.17 | 0.00 | 60 | 1019.5 |
| 20260504023503 | 85 | 25 | 3.0 | 6.0 | 0.00 | 0.17 | 0.00 | 60 | 1019.6 |
| 20260504023403 | 85 | 31 | 4.0 | 6.0 | 0.00 | 0.18 | 0.00 | 60 | 1019.7 |
| 20260504023324 | 85 | 29 | 4.0 | 6.0 | 0.00 | 0.18 | 0.00 | 60 | 1019.7 |
| 20260504023203 | 85 | 27 | 4.0 | 6.0 | 0.00 | 0.18 | 0.00 | 60 | 1019.5 |
| 20260504023125 | 85 | 27 | 4.0 | 6.0 | 0.00 | 0.18 | 0.00 | 60 | 1019.4 |
| 20260504023003 | 85 | 25 | 4.0 | 6.0 | 0.00 | 0.19 | 0.00 | 60 | 1019.5 |
| 20260504022903 | 85 | 26 | 4.0 | 6.0 | 0.00 | 0.19 | 0.00 | 60 | 1019.4 |
| 20260504022803 | 85 | 27 | 4.0 | 6.0 | 0.00 | 0.19 | 0.00 | 60 | 1019.2 |
| 20260504022703 | 85 | 26 | 4.0 | 6.0 | 0.00 | 0.19 | 0.00 | 60 | 1019.5 |
| 20260504022624 | 85 | 25 | 4.0 | 6.0 | 0.00 | 0.20 | 0.00 | 60 | 1019.6 |
| 20260504022503 | 85 | 22 | 4.0 | 6.0 | 0.00 | 0.20 | 0.00 | 60 | 1019.6 |
| 20260504022403 | 85 | 15 | 3.0 | 6.0 | 0.00 | 0.21 | 0.00 | 60 | 1019.4 |
| 20260504022324 | 85 | 13 | 3.0 | 6.0 | 0.00 | 0.21 | 0.00 | 60 | 1019.5 |
| 20260504022203 | 85 | 7 | 4.0 | 6.0 | 0.00 | 0.21 | 0.00 | 60 | 1019.4 |
| 20260504022103 | 85 | 2 | 4.0 | 6.0 | 0.00 | 0.21 | 0.00 | 60 | 1019.4 |
| 20260504022003 | 85 | 359 | 4.0 | 6.0 | 0.00 | 0.22 | 0.00 | 60 | 1019.6 |
| 20260504021903 | 85 | 355 | 4.0 | 8.0 | 0.00 | 0.22 | 0.00 | 60 | 1019.5 |
| 20260504021803 | 85 | 353 | 4.0 | 8.0 | 0.00 | 0.23 | 0.00 | 60 | 1019.4 |
| 20260504021703 | 85 | 352 | 4.0 | 8.0 | 0.00 | 0.23 | 0.00 | 60 | 1019.5 |
| 20260504021603 | 85 | 353 | 5.0 | 8.0 | 0.00 | 0.23 | 0.00 | 60 | 1019.5 |
| 20260504021504 | 85 | 356 | 5.0 | 8.0 | 0.00 | 0.23 | 0.00 | 60 | 1019.2 |
| 20260504021403 | 85 | 355 | 5.0 | 8.0 | 0.00 | 0.23 | 0.00 | 60 | 1019.5 |
| 20260504021304 | 85 | 357 | 5.0 | 8.0 | 0.00 | 0.24 | 0.00 | 60 | 1019.4 |
| 20260504021224 | 85 | 358 | 5.0 | 8.0 | 0.00 | 0.24 | 0.00 | 60 | 1019.5 |
| 20260504021124 | 85 | 359 | 5.0 | 8.0 | 0.00 | 0.24 | 0.00 | 60 | 1019.5 |
| 20260504021025 | 85 | 1 | 5.0 | 8.0 | 0.00 | 0.24 | 0.00 | 60 | 1019.4 |
| 20260504020903 | 85 | 8 | 4.0 | 7.0 | 0.00 | 0.24 | 0.00 | 60 | 1019.4 |
| 20260504020803 | 85 | 11 | 4.0 | 7.0 | 0.00 | 0.25 | 0.00 | 60 | 1019.4 |
| 20260504020724 | 85 | 12 | 4.0 | 7.0 | 0.00 | 0.26 | 0.00 | 60 | 1019.2 |
| 20260504020603 | 85 | 12 | 4.0 | 6.0 | 0.00 | 0.26 | 0.00 | 60 | 1019.2 |
| 20260504020503 | 85 | 10 | 4.0 | 6.0 | 0.00 | 0.27 | 0.00 | 60 | 1019.4 |
| 20260504020403 | 85 | 12 | 4.0 | 6.0 | 0.00 | 0.28 | 0.00 | 60 | 1019.4 |
| 20260504020303 | 85 | 13 | 4.0 | 6.0 | 0.00 | 0.28 | 0.00 | 60 | 1019.5 |
| 20260504020203 | 85 | 15 | 3.0 | 6.0 | 0.00 | 0.28 | 0.00 | 60 | 1019.2 |
| 20260504020103 | 85 | 13 | 3.0 | 6.0 | 0.00 | 0.29 | 0.00 | 60 | 1019.2 |
| 20260504020004 | 85 | 12 | 4.0 | 6.0 | 0.00 | 0.29 | 0.00 | 60 | 1019.4 |
| 20260504015903 | 85 | 10 | 4.0 | 6.0 | 0.00 | 0.29 | 0.00 | 60 | 1019.2 |
| 20260504015803 | 85 | 6 | 4.0 | 6.0 | 0.00 | 0.30 | 0.00 | 60 | 1019.5 |
| 20260504015703 | 85 | 3 | 4.0 | 6.0 | 0.00 | 0.30 | 0.00 | 60 | 1019.2 |
| 20260504015603 | 85 | 360 | 4.0 | 6.0 | 0.00 | 0.30 | 0.00 | 60 | 1019.2 |
| 20260504015524 | 85 | 360 | 4.0 | 6.0 | 0.00 | 0.30 | 0.00 | 60 | 1019.2 |
| 20260504015403 | 85 | 357 | 4.0 | 6.0 | 0.00 | 0.30 | 0.00 | 60 | 1019.1 |
| 20260504015304 | 85 | 355 | 4.0 | 6.0 | 0.00 | 0.30 | 0.00 | 60 | 1019.1 |
| 20260504015226 | 85 | 355 | 4.0 | 6.0 | 0.00 | 0.30 | 0.00 | 60 | 1019.1 |
| 20260504015103 | 85 | 354 | 4.0 | 6.0 | 0.00 | 0.30 | 0.00 | 60 | 1019.4 |
| 20260504015003 | 85 | 351 | 4.0 | 6.0 | 0.00 | 0.30 | 0.00 | 60 | 1019.2 |
| 20260504014903 | 85 | 348 | 3.0 | 6.0 | 0.00 | 0.30 | 0.00 | 60 | 1019.5 |
| 20260504014803 | 85 | 346 | 3.0 | 6.0 | 0.00 | 0.30 | 0.00 | 60 | 1019.2 |
| 20260504014724 | 85 | 346 | 3.0 | 6.0 | 0.00 | 0.30 | 0.00 | 60 | 1019.2 |
| 20260504014603 | 85 | 345 | 2.0 | 4.0 | 0.00 | 0.30 | 0.00 | 60 | 1019.2 |
| 20260504014524 | 85 | 345 | 2.0 | 4.0 | 0.00 | 0.31 | 0.00 | 60 | 1019.1 |
| 20260504014403 | 85 | 340 | 2.0 | 4.0 | 0.00 | 0.31 | 0.00 | 60 | 1019.1 |
| 20260504014303 | 85 | 343 | 2.0 | 4.0 | 0.00 | 0.31 | 0.00 | 60 | 1019.0 |
| 20260504014203 | 85 | 341 | 1.0 | 4.0 | 0.00 | 0.31 | 0.00 | 60 | 1019.0 |
| 20260504014103 | 85 | 348 | 1.0 | 4.0 | 0.00 | 0.31 | 0.00 | 60 | 1019.0 |
| 20260504014024 | 85 | 354 | 1.0 | 4.0 | 0.00 | 0.31 | 0.00 | 60 | 1019.0 |
| 20260504013924 | 85 | 4 | 1.0 | 2.0 | 0.00 | 0.31 | 0.00 | 60 | 1018.9 |
| 20260504013803 | 85 | 15 | 1.0 | 3.0 | 0.00 | 0.31 | 0.00 | 60 | 1018.9 |
| 20260504013703 | 85 | 21 | 1.0 | 3.0 | 0.00 | 0.31 | 0.00 | 60 | 1018.9 |
| 20260504013603 | 85 | 30 | 1.0 | 3.0 | 0.00 | 0.31 | 0.00 | 60 | 1018.9 |
| 20260504013503 | 85 | 30 | 1.0 | 3.0 | 0.00 | 0.31 | 0.00 | 60 | 1018.8 |
| 20260504013403 | 85 | 36 | 1.0 | 3.0 | 0.00 | 0.31 | 0.00 | 60 | 1019.0 |
| 20260504013305 | 85 | 38 | 1.0 | 3.0 | 0.00 | 0.31 | 0.00 | 60 | 1018.8 |
| 20260504013203 | 85 | 39 | 1.0 | 3.0 | 0.00 | 0.31 | 0.00 | 60 | 1018.8 |
| 20260504013103 | 85 | 39 | 1.0 | 3.0 | 0.00 | 0.31 | 0.00 | 60 | 1018.8 |
| 20260504013003 | 85 | 33 | 1.0 | 3.0 | 0.00 | 0.31 | 0.00 | 60 | 1018.8 |
| 20260504012903 | 85 | 14 | 1.0 | 3.0 | 0.00 | 0.31 | 0.00 | 60 | 1018.7 |
| 20260504012803 | 85 | 6 | 1.0 | 3.0 | 0.00 | 0.31 | 0.00 | 60 | 1018.9 |
| 20260504012724 | 85 | 358 | 1.0 | 2.0 | 0.00 | 0.31 | 0.00 | 60 | 1018.8 |
| 20260504012624 | 85 | 344 | 1.0 | 2.0 | 0.00 | 0.31 | 0.00 | 60 | 1018.9 |
| 20260504012503 | 85 | 342 | 1.0 | 2.0 | 0.00 | 0.31 | 0.00 | 60 | 1019.0 |
| 20260504012403 | 85 | 343 | 1.0 | 2.0 | 0.00 | 0.31 | 0.00 | 60 | 1018.8 |
| 20260504012304 | 85 | 351 | 1.0 | 4.0 | 0.00 | 0.31 | 0.00 | 60 | 1018.8 |
| 20260504012203 | 85 | 353 | 2.0 | 4.0 | 0.00 | 0.31 | 0.00 | 60 | 1018.8 |
| 20260504012103 | 85 | 353 | 2.0 | 4.0 | 0.00 | 0.31 | 0.00 | 60 | 1018.8 |
| 20260504012003 | 85 | 353 | 2.0 | 4.0 | 0.00 | 0.31 | 0.00 | 60 | 1018.9 |
| 20260504011903 | 85 | 358 | 2.0 | 4.0 | 0.00 | 0.31 | 0.00 | 60 | 1018.6 |
| 20260504011803 | 85 | 360 | 3.0 | 6.0 | 0.00 | 0.31 | 0.00 | 60 | 1018.8 |
| 20260504011703 | 85 | 360 | 3.0 | 6.0 | 0.00 | 0.31 | 0.00 | 60 | 1018.7 |
| 20260504011603 | 85 | 2 | 3.0 | 6.0 | 0.00 | 0.31 | 0.00 | 60 | 1018.8 |
| 20260504011503 | 85 | 4 | 3.0 | 6.0 | 0.00 | 0.31 | 0.00 | 60 | 1018.7 |
| 20260504011424 | 85 | 5 | 3.0 | 6.0 | 0.00 | 0.31 | 0.00 | 60 | 1018.8 |
| 20260504011303 | 85 | 3 | 3.0 | 6.0 | 0.00 | 0.31 | 0.00 | 60 | 1018.7 |
| 20260504011205 | 85 | 4 | 3.0 | 6.0 | 0.00 | 0.31 | 0.00 | 60 | 1018.6 |
| 20260504011103 | 85 | 5 | 3.0 | 6.0 | 0.00 | 0.31 | 0.00 | 60 | 1018.7 |
| 20260504011024 | 85 | 8 | 3.0 | 6.0 | 0.00 | 0.31 | 0.00 | 60 | 1018.8 |
| 20260504010903 | 85 | 9 | 3.0 | 6.0 | 0.00 | 0.31 | 0.00 | 60 | 1018.7 |
| 20260504010803 | 85 | 11 | 2.0 | 4.0 | 0.00 | 0.31 | 0.00 | 60 | 1018.8 |
| 20260504010703 | 85 | 11 | 2.0 | 4.0 | 0.00 | 0.31 | 0.00 | 60 | 1018.7 |
| 20260504010603 | 85 | 10 | 2.0 | 4.0 | 0.00 | 0.31 | 0.00 | 60 | 1018.7 |
| 20260504010503 | 85 | 5 | 2.0 | 4.0 | 0.00 | 0.31 | 0.00 | 60 | 1018.7 |
| 20260504010424 | 85 | 4 | 2.0 | 4.0 | 0.00 | 0.31 | 0.00 | 60 | 1018.7 |
| 20260504010303 | 85 | 1 | 2.0 | 3.0 | 0.00 | 0.31 | 0.00 | 60 | 1018.6 |
| 20260504010204 | 85 | 353 | 2.0 | 3.0 | 0.00 | 0.31 | 0.00 | 60 | 1018.6 |
| 20260504010024 | 85 | 342 | 2.0 | 3.0 | 0.00 | 0.32 | 0.00 | 60 | 1018.7 |
| 20260504005903 | 85 | 339 | 2.0 | 3.0 | 0.00 | 0.32 | 0.00 | 60 | 1018.6 |
| 20260504005803 | 85 | 338 | 2.0 | 3.0 | 0.00 | 0.32 | 0.00 | 60 | 1018.6 |
| 20260504005724 | 85 | 336 | 2.0 | 3.0 | 0.00 | 0.32 | 0.00 | 60 | 1018.8 |
| 20260504005604 | 85 | 338 | 2.0 | 3.0 | 0.00 | 0.32 | 0.00 | 60 | 1018.7 |
| 20260504005504 | 85 | 340 | 2.0 | 3.0 | 0.00 | 0.32 | 0.00 | 60 | 1018.5 |
| 20260504005403 | 85 | 340 | 2.0 | 3.0 | 0.00 | 0.33 | 0.00 | 60 | 1018.4 |
| 20260504005305 | 85 | 343 | 2.0 | 3.0 | 0.00 | 0.33 | 0.00 | 60 | 1018.6 |
| 20260504005224 | 85 | 347 | 2.0 | 3.0 | 0.00 | 0.34 | 0.00 | 60 | 1018.5 |
| 20260504005104 | 85 | 356 | 2.0 | 3.0 | 0.00 | 0.34 | 0.00 | 60 | 1018.5 |
| 20260504005004 | 85 | 359 | 2.0 | 3.0 | 0.00 | 0.35 | 0.00 | 60 | 1018.6 |
| 20260504004903 | 85 | 1 | 2.0 | 3.0 | 0.00 | 0.36 | 0.00 | 60 | 1018.4 |
| 20260504004803 | 85 | 2 | 2.0 | 3.0 | 0.00 | 0.37 | 0.00 | 60 | 1018.5 |
| 20260504004703 | 85 | 5 | 2.0 | 3.0 | 0.00 | 0.38 | 0.00 | 60 | 1018.4 |
| 20260504004604 | 85 | 11 | 1.0 | 3.0 | 0.00 | 0.39 | 0.00 | 60 | 1018.4 |
| 20260504004504 | 85 | 18 | 1.0 | 2.0 | 0.00 | 0.40 | 0.00 | 60 | 1018.3 |
| 20260504004424 | 85 | 20 | 1.0 | 2.0 | 0.00 | 0.40 | 0.00 | 60 | 1018.3 |
| 20260504004324 | 85 | 20 | 1.0 | 2.0 | 0.00 | 0.41 | 0.00 | 60 | 1018.5 |
| 20260504004203 | 85 | 21 | 1.0 | 2.0 | 0.00 | 0.41 | 0.00 | 60 | 1018.5 |
| 20260504004103 | 85 | 20 | 1.0 | 2.0 | 0.00 | 0.41 | 0.00 | 60 | 1018.3 |
| 20260504004003 | 85 | 21 | 0.0 | 2.0 | 0.00 | 0.42 | 0.00 | 60 | 1018.4 |